ECMWFFLT2_sfc_dewp_000.txt.gz
Dewpoint
14 13 11 7 10 16 18 15 18 20 22 23 26 28 25 26 26 24 32 35 33 30 28 33 35 35 35 35 33 31 38 45 53 52 54 55 57 59 60 61 60 63 63 65 65 66 64 65 66 67 69 71 72 71 72 75 76 74 74 75 76 76 77
12 12 12 9 8 13 17 16 16 20 22 22 27 22 27 27 22 24 23 30 29 28 28 32 29 27 25 28 31 26 34 42 50 51 54 57 56 58 61 63 63 63 63 65 64 62 63 64 65 68 70 71 73 73 73 74 75 75 74 75 76 76 77
11 13 14 10 9 9 14 18 20 18 22 25 28 27 23 23 24 24 24 26 28 26 30 28 28 27 26 30 32 29 26 36 49 50 53 56 57 57 60 61 62 63 63 64 65 60 60 64 67 68 70 71 72 73 73 70 72 73 73 72 75 77 78
12 13 9 11 10 12 13 16 19 21 24 26 26 28 28 28 24 24 22 23 28 31 28 26 29 32 32 26 28 27 26 34 49 51 51 55 57 58 58 59 61 63 62 60 59 58 57 60 65 66 68 68 67 70 73 71 70 74 74 73 75 77 77
10 10 9 6 10 10 11 12 15 18 20 23 24 25 24 26 24 23 24 20 25 30 28 26 30 32 33 30 29 32 31 31 32 50 52 54 58 58 59 59 61 62 61 58 55 58 58 59 64 65 64 66 65 66 68 70 71 71 72 73 74 77 76
9 7 9 7 6 8 12 9 14 17 17 22 23 23 23 23 25 27 20 21 29 28 25 31 28 30 28 30 31 30 29 27 37 36 53 55 57 60 60 60 59 59 62 59 56 58 60 59 61 64 63 63 64 64 65 68 67 69 69 72 75 77 77
10 5 7 10 5 4 6 12 13 14 18 22 22 24 25 23 21 21 24 22 26 29 31 33 32 30 24 28 26 28 27 32 30 38 48 56 60 61 59 60 58 59 61 62 60 61 63 63 64 65 65 63 63 64 64 67 68 68 67 69 73 77 77
17 14 8 8 8 3 1 7 11 11 12 15 19 21 27 25 22 24 24 26 23 29 41 37 29 36 28 34 30 33 29 30 34 39 55 59 62 64 61 60 58 60 60 63 66 65 67 67 67 66 66 67 65 65 65 66 68 68 68 67 71 76 76
23 20 20 10 7 7 4 -0 4 10 13 15 17 21 27 26 23 24 24 21 22 31 38 42 42 36 27 27 27 33 40 47 46 52 61 60 63 64 61 61 61 61 59 62 67 68 70 70 67 68 68 68 66 67 67 66 67 68 69 68 68 73 74
22 21 19 18 15 13 10 10 3 6 7 16 18 19 26 25 33 33 25 22 28 28 35 31 30 28 32 35 32 30 34 46 47 47 62 65 64 66 65 64 62 62 65 67 69 70 72 70 69 70 71 69 68 69 70 68 68 69 69 68 67 70 73
21 25 29 25 22 17 13 9 8 5 3 4 15 22 23 21 31 29 34 31 29 28 26 32 29 30 29 26 29 29 30 48 54 64 65 64 65 66 64 65 65 68 69 70 71 72 72 70 70 70 70 70 70 72 72 70 70 70 71 71 71 70 71
28 22 25 20 21 17 16 11 7 7 7 8 11 13 16 32 25 25 34 40 29 27 28 29 32 30 33 31 32 29 31 33 42 57 67 66 63 64 66 66 67 68 70 72 73 73 72 71 72 72 71 70 71 72 72 71 70 70 71 72 72 73 74
24 21 19 18 18 18 18 14 11 8 6 9 11 17 13 25 21 21 34 43 33 29 24 26 29 33 35 26 28 28 29 28 36 57 63 61 60 63 64 67 69 70 71 72 72 72 72 71 72 72 72 72 73 74 73 73 70 71 72 73 74 74 75
25 24 21 21 19 17 17 17 17 13 10 13 13 11 10 12 27 25 25 37 32 27 26 26 28 31 26 27 31 32 32 26 44 56 63 58 59 60 62 65 67 69 70 72 73 74 74 73 73 72 73 73 73 73 72 72 73 71 73 74 75 74 74
31 28 27 25 23 19 18 16 15 14 11 8 8 8 11 21 18 15 15 26 30 30 32 30 32 32 27 29 21 24 37 33 30 45 57 59 59 60 62 66 66 69 70 71 73 73 74 73 74 73 74 74 73 71 71 71 74 72 72 75 75 74 74
31 30 29 26 24 21 18 18 16 15 13 14 10 15 14 18 23 23 19 23 22 24 31 29 30 31 33 29 29 32 32 29 37 54 58 59 62 61 61 64 66 68 68 70 72 73 72 73 74 74 75 74 73 72 72 72 72 73 73 74 74 75 75
33 30 26 25 23 22 20 20 16 16 16 16 14 14 17 17 16 20 20 18 21 25 31 26 27 23 27 26 30 32 35 56 60 60 61 61 63 64 65 66 67 66 66 70 72 71 71 72 73 73 75 73 74 74 74 74 74 73 73 72 74 75 75
33 32 29 27 27 21 20 24 17 19 15 15 16 13 15 16 20 18 21 22 28 28 25 24 28 30 30 31 43 54 58 58 58 58 58 59 62 64 64 65 65 67 68 69 69 70 72 72 71 72 74 74 74 74 73 74 74 75 75 74 74 75 75
32 34 34 31 26 25 31 23 21 19 17 16 16 19 14 17 21 22 25 28 30 30 27 34 39 41 59 58 57 52 52 58 55 56 55 61 63 63 65 67 65 67 67 68 70 70 69 68 71 73 72 73 73 72 74 73 75 75 75 75 75 75 74
35 36 33 29 27 33 26 23 27 25 18 16 18 19 20 17 15 24 21 24 26 31 31 32 49 56 52 53 57 58 54 55 55 52 51 56 59 60 63 66 67 68 66 68 67 69 69 71 70 69 70 70 70 71 72 74 75 76 76 75 74 74 73
34 37 32 29 36 31 31 32 32 27 27 25 23 19 22 23 22 22 24 28 26 24 25 44 48 50 44 47 48 50 49 54 55 51 52 53 57 59 63 61 66 68 68 68 67 68 68 68 68 67 67 67 67 68 71 73 76 75 75 75 74 74 72
36 34 34 34 32 31 31 35 44 45 43 44 46 46 26 30 20 24 27 29 32 27 37 49 49 50 45 39 36 51 53 54 56 54 55 58 61 61 62 68 67 68 66 65 66 65 67 66 65 65 65 67 70 71 73 74 74 75 75 74 73 73 71
35 36 34 33 33 34 49 48 44 44 45 43 48 37 24 29 31 27 29 30 31 33 44 50 50 44 32 32 38 58 59 56 55 54 54 54 58 62 64 64 63 62 65 67 66 68 68 63 67 68 70 71 72 73 73 74 74 74 74 73 72 72 71
37 36 34 33 36 34 48 45 44 43 44 45 43 32 25 34 42 43 42 32 39 46 49 49 48 42 32 29 49 55 58 60 61 61 60 61 61 62 63 63 66 69 70 69 68 67 66 71 72 73 73 73 73 73 73 73 72 72 73 73 73 72 71
35 36 34 35 37 47 45 45 44 44 45 44 39 28 23 52 50 50 50 45 48 51 50 50 43 51 57 60 60 58 59 61 62 62 62 63 63 64 64 67 69 70 69 67 63 63 72 74 73 74 74 73 73 74 73 72 71 71 72 73 72 71 71
31 33 33 34 37 44 46 48 43 46 42 38 31 51 56 57 55 53 50 47 51 52 53 46 57 58 59 59 59 60 61 62 64 63 63 63 64 65 68 69 65 60 58 64 66 70 74 74 74 74 74 74 74 73 71 70 70 71 72 73 72 71 70
36 39 36 35 34 47 47 47 45 47 41 46 53 54 55 52 53 52 51 51 52 55 57 58 58 56 55 58 60 61 62 61 60 61 61 62 61 62 63 64 61 58 62 64 68 71 71 72 71 72 72 74 73 72 71 71 71 72 72 72 72 71 70
32 35 37 36 46 49 48 48 47 52 53 53 54 53 53 55 56 56 55 56 56 55 55 54 54 55 56 57 58 56 54 54 57 58 58 57 56 52 50 50 54 60 70 72 72 71 69 69 69 71 74 74 73 73 73 73 72 73 73 73 72 70 69
37 38 40 49 50 48 48 50 51 51 51 52 52 52 51 51 50 54 55 57 56 56 56 55 54 54 54 54 54 55 55 55 57 56 53 52 52 51 52 49 55 58 66 71 70 69 69 71 73 75 74 74 73 74 74 73 73 72 72 72 70 69 69
50 50 50 50 49 49 48 47 48 47 48 50 52 52 52 54 55 56 54 52 53 55 56 55 55 57 59 60 58 57 57 58 61 64 64 62 57 55 58 64 61 57 58 61 64 66 68 69 70 72 71 71 74 72 72 72 72 73 72 71 69 68 68
42 41 48 49 50 51 51 47 47 48 48 50 52 55 55 55 55 57 59 59 59 58 61 60 58 57 58 59 61 63 64 64 65 64 65 65 66 65 64 67 66 59 57 58 62 63 65 65 64 64 68 71 73 72 72 72 72 72 71 70 69 69 68
41 47 50 50 50 52 51 49 48 49 50 49 50 53 54 54 54 54 55 57 58 59 59 60 60 59 58 58 60 60 62 63 65 66 66 67 66 67 67 68 67 64 60 60 62 65 67 67 67 66 66 68 70 71 70 70 70 70 70 69 68 68 67
51 52 51 49 49 50 52 50 52 52 51 50 51 49 48 48 49 50 50 51 51 52 53 56 57 57 57 56 58 57 60 63 65 66 66 67 68 68 67 68 67 65 64 63 65 66 67 67 68 70 71 71 70 71 69 68 70 68 68 67 68 67 66
44 46 49 50 47 47 50 50 52 52 52 50 49 51 50 48 47 47 47 48 49 48 49 50 51 52 52 52 53 51 54 57 61 64 64 63 63 65 66 67 68 68 67 66 66 67 68 68 68 69 69 69 69 67 67 68 69 69 68 67 67 65 65
41 49 50 55 55 54 55 55 55 53 52 50 50 51 51 50 49 48 48 47 49 49 50 49 49 51 51 50 48 46 47 52 55 57 60 61 61 61 64 66 66 67 68 68 68 68 68 68 67 67 68 67 68 67 68 69 68 68 68 67 65 64 65
52 50 52 53 54 53 54 54 55 54 54 53 48 53 54 53 52 50 50 50 49 49 50 51 51 51 51 51 49 50 50 50 51 49 51 55 59 59 59 62 66 67 67 67 67 67 68 67 67 68 66 67 69 67 68 68 68 69 67 65 63 61 61
50 52 54 54 54 55 56 55 56 55 55 56 53 52 52 51 51 53 52 51 49 47 48 47 49 51 50 49 51 52 52 51 51 48 50 52 51 57 58 59 61 64 66 66 66 66 67 68 67 67 67 68 67 66 67 66 66 67 67 66 63 62 64

ECMWFFLT2_sfc_dewp_003.txt.gz
Dewpoint
12 9 8 4 2 5 9 8 13 17 20 21 24 28 24 25 25 25 28 27 28 29 26 25 30 30 29 31 29 28 31 31 39 36 35 52 54 53 52 56 58 61 61 63 63 65 64 64 65 66 69 68 69 70 70 72 72 73 74 75 74 74 74
13 9 8 5 3 3 9 12 13 16 19 20 25 21 27 23 22 25 22 23 25 25 25 29 29 29 26 33 32 26 32 30 30 32 37 43 53 53 54 58 61 62 61 62 63 63 63 64 64 66 69 68 68 69 70 71 72 73 74 74 74 74 74
16 15 13 9 4 1 3 9 14 11 18 20 24 27 21 21 23 23 23 22 22 24 27 28 31 29 28 34 35 32 29 29 32 33 36 41 42 48 53 55 59 62 61 61 63 62 61 63 67 67 67 67 68 68 68 68 71 71 72 71 73 74 74
16 16 11 12 6 4 2 5 8 12 17 21 22 25 25 26 23 23 21 22 23 29 26 27 32 33 32 29 31 30 29 30 30 33 34 37 43 53 52 57 59 62 61 60 60 60 60 62 63 64 65 65 66 67 69 68 69 72 72 72 73 73 72
13 14 12 9 9 4 2 1 4 13 15 17 20 20 20 23 25 22 23 21 25 28 25 26 32 33 31 27 30 33 32 30 26 29 33 38 47 53 56 57 58 61 62 59 59 60 60 61 63 65 64 63 63 65 66 65 69 70 70 70 71 72 72
13 11 13 11 8 7 4 -2 0 8 14 17 17 19 18 19 19 24 21 22 30 25 21 28 28 30 28 28 29 30 29 28 38 31 32 40 47 54 56 56 56 60 62 60 58 60 61 60 63 63 61 60 61 63 64 64 64 68 65 69 71 73 73
12 11 11 11 7 6 5 0 -2 3 10 18 20 20 24 20 19 19 24 22 28 31 31 30 28 30 25 28 27 29 28 31 29 33 27 38 49 54 50 55 55 58 62 61 60 62 62 61 62 60 60 60 60 62 63 64 63 65 65 65 68 73 74
12 13 11 10 9 8 6 5 2 -1 2 10 17 21 25 20 23 22 22 24 22 29 38 35 28 37 28 32 29 34 28 27 30 33 34 54 53 54 52 54 53 57 60 63 64 63 63 62 64 62 61 60 59 60 61 60 60 61 62 62 63 70 72
20 15 17 11 10 9 5 2 5 5 2 5 13 19 25 24 23 23 21 21 22 29 35 35 32 30 27 28 27 30 31 33 30 31 53 53 60 60 57 59 59 60 60 64 67 65 65 64 58 63 62 60 60 60 58 57 59 59 59 60 60 65 69
18 18 16 14 12 8 6 5 3 8 5 9 12 15 26 24 32 32 24 25 29 29 39 34 32 33 36 32 28 24 29 38 31 30 35 58 56 59 63 64 61 61 66 69 73 71 67 64 58 65 66 60 57 58 59 57 57 59 58 59 59 61 68
20 24 28 22 15 8 6 4 3 2 6 8 9 13 19 19 26 26 32 33 27 29 28 31 29 33 32 30 30 29 31 33 35 48 46 46 59 59 59 65 64 68 71 70 71 72 66 59 60 61 61 60 58 63 62 57 57 59 63 63 64 61 63
28 22 24 17 16 11 8 6 4 1 0 5 10 12 15 31 20 19 31 40 28 26 30 31 34 31 34 34 35 31 33 34 32 36 55 58 52 63 66 66 66 67 70 71 71 71 66 62 62 60 61 62 62 62 61 60 57 58 63 64 63 65 69
24 22 20 19 15 16 15 7 4 3 2 3 8 20 18 26 18 19 33 41 33 27 25 25 29 33 35 28 30 31 31 29 38 46 43 49 52 59 65 67 68 68 67 70 70 68 67 64 63 62 62 64 66 65 62 65 58 61 64 66 66 64 68
24 23 21 21 18 16 15 10 9 8 6 5 4 4 7 12 29 25 24 37 30 24 23 25 28 30 28 28 32 34 34 30 43 37 37 29 51 60 61 66 65 68 68 69 70 71 71 68 67 64 66 69 66 64 62 61 64 63 64 69 71 68 66
24 23 23 22 20 16 15 16 13 12 12 12 9 3 3 15 15 15 18 29 28 26 30 29 30 32 29 31 28 27 36 34 30 32 29 32 33 36 43 56 65 68 69 69 70 71 72 71 71 70 69 68 66 64 65 65 68 64 62 73 73 72 72
25 24 24 22 21 18 17 15 16 16 13 14 10 13 11 13 20 20 15 21 21 26 30 27 29 30 31 31 34 34 34 30 35 35 33 35 41 39 38 53 65 69 69 70 72 72 71 71 72 71 72 70 69 68 68 67 67 65 68 69 69 73 72
30 30 27 26 24 23 21 20 17 17 16 16 15 16 15 13 11 13 16 16 21 26 29 24 29 25 30 30 28 32 36 47 36 37 38 35 35 39 59 61 64 65 67 69 73 72 72 70 71 70 72 70 71 70 72 71 72 68 66 68 73 74 77
32 30 29 29 30 26 24 27 23 23 19 15 16 14 15 16 18 15 15 17 24 23 22 23 28 29 29 34 40 40 41 43 48 37 37 34 33 34 52 58 55 65 69 69 72 73 73 71 69 71 73 72 72 71 71 72 72 73 73 73 75 76 77
33 34 35 32 29 28 35 30 27 25 23 22 21 20 15 17 20 18 17 20 23 25 22 24 29 34 32 33 34 29 31 41 37 41 36 44 40 57 58 57 55 66 69 70 72 73 72 71 71 73 73 73 73 71 72 72 74 76 75 76 76 77 76
36 35 36 30 29 36 30 28 28 28 24 23 23 23 23 19 17 22 21 21 21 28 27 24 27 30 22 23 36 38 32 38 31 30 26 36 51 56 56 64 67 69 67 69 67 71 71 70 70 71 72 72 71 68 69 72 74 75 76 76 75 76 75
34 35 33 32 37 32 31 32 32 29 31 29 28 35 42 35 28 21 22 23 22 20 20 23 29 29 21 28 27 28 42 41 47 40 36 39 41 45 58 58 63 68 69 69 68 73 71 69 69 71 71 70 69 69 72 73 76 75 75 75 74 77 76
36 33 30 31 31 30 30 37 43 39 39 40 42 43 37 39 35 33 23 25 25 25 21 26 29 31 28 24 31 41 36 32 39 44 44 41 40 40 51 60 61 70 70 70 71 71 71 71 72 71 71 73 73 74 74 74 75 75 75 75 76 76 75
35 34 32 31 32 32 40 45 40 41 41 40 42 38 31 34 32 31 25 20 24 25 24 24 29 27 25 29 38 39 36 30 29 41 46 40 35 46 54 58 63 67 68 69 68 71 70 68 72 74 75 74 74 74 74 75 76 75 74 74 74 74 74
34 35 33 31 35 35 46 43 40 40 41 41 39 31 28 37 38 36 34 27 24 25 31 27 28 26 24 28 34 32 31 19 44 53 53 48 47 51 52 56 63 69 71 71 71 69 71 73 72 73 73 73 74 74 75 75 74 74 74 75 74 74 72
32 35 33 33 35 40 44 43 40 40 41 40 36 31 39 53 53 52 51 52 51 31 29 27 24 34 35 35 43 51 54 51 54 54 54 54 53 53 55 61 68 69 70 69 68 68 70 72 71 72 73 72 74 75 75 75 74 74 74 74 74 73 73
29 31 31 30 32 40 42 44 39 42 38 36 34 49 54 53 52 53 51 49 51 47 33 33 31 29 36 37 41 46 53 57 60 59 56 55 54 58 62 67 67 67 65 68 67 67 71 70 71 71 73 74 75 75 74 74 75 74 74 74 74 73 73
31 32 28 26 27 49 45 44 40 46 40 43 52 53 53 52 53 54 56 55 53 48 41 35 37 38 32 37 48 46 52 59 61 61 59 60 58 60 66 67 67 65 66 66 66 70 68 70 71 72 74 75 75 74 73 73 73 75 74 74 74 73 72
28 26 25 27 33 46 45 41 39 48 50 51 54 52 51 53 54 57 59 60 56 49 44 39 36 38 45 51 51 58 61 60 61 61 63 64 65 67 66 65 65 64 68 71 71 70 67 68 67 70 73 72 71 72 73 73 74 74 74 74 73 72 71
32 28 28 49 48 47 47 49 48 50 52 53 52 53 55 56 57 58 60 59 57 56 54 54 55 56 53 57 58 58 59 60 62 64 65 64 63 61 62 62 69 69 68 69 68 65 63 64 64 67 69 72 72 72 73 74 74 73 73 73 72 71 70
49 49 49 48 48 47 46 46 48 47 49 50 50 53 56 58 60 59 59 63 56 56 60 59 61 64 61 58 53 54 56 55 57 58 58 59 60 60 62 66 67 68 68 69 70 70 72 72 74 75 72 72 73 74 75 75 74 74 73 72 71 70 70
41 45 53 51 49 48 47 47 49 49 49 51 55 57 58 58 60 61 61 62 63 61 62 63 63 64 63 60 61 60 60 60 61 62 63 62 59 59 59 60 62 62 63 62 63 63 65 68 69 70 73 74 75 75 75 75 74 73 72 71 70 70 70
41 46 52 53 52 54 53 51 52 49 48 49 53 54 55 60 62 61 61 62 63 61 60 60 61 58 60 63 63 64 64 64 64 65 66 66 63 62 62 63 63 62 61 62 64 65 64 63 65 68 71 72 73 74 73 72 71 72 71 70 69 69 69
52 52 51 51 51 51 51 51 53 54 52 51 49 52 54 53 52 51 51 55 60 62 52 52 52 52 54 56 59 59 62 63 64 65 67 68 68 65 62 63 65 65 66 66 68 68 69 70 71 71 72 72 72 72 71 70 71 70 68 68 69 68 67
46 47 48 48 44 46 48 49 51 54 53 52 52 52 50 49 48 52 50 50 50 49 50 51 52 51 52 51 53 52 55 59 63 64 63 64 65 65 64 64 66 68 69 70 70 70 70 71 71 71 71 70 70 68 68 69 69 69 69 67 67 65 65
47 47 48 52 52 52 52 52 52 53 52 51 51 52 52 51 50 49 49 51 53 50 49 50 51 52 52 52 50 49 49 53 56 60 61 62 63 64 65 65 66 67 68 69 69 69 69 70 70 70 70 68 68 67 69 69 68 70 68 66 65 64 65
50 50 50 50 50 50 52 51 52 53 52 51 50 50 51 51 50 50 52 50 49 49 49 49 50 51 51 51 51 51 50 50 53 54 57 60 60 61 64 66 67 67 67 68 68 68 68 69 68 69 67 68 69 68 70 69 69 70 69 68 66 65 65
50 54 54 54 53 53 54 53 52 51 52 52 51 50 49 50 50 49 48 48 48 48 48 47 48 49 50 49 50 51 51 50 52 51 54 57 56 59 58 60 64 66 67 66 67 68 68 69 68 67 67 68 68 68 70 69 69 69 69 68 66 65 66

ECMWFFLT2_sfc_dewp_006.txt.gz
Dewpoint
13 10 7 5 5 4 5 5 8 9 11 15 20 23 16 19 22 23 28 25 26 26 23 23 30 30 33 35 34 34 39 41 45 43 42 45 54 56 57 58 59 61 60 64 63 64 64 65 66 67 69 70 71 72 73 74 75 75 75 75 75 75 75
13 13 9 6 5 5 2 1 2 4 7 11 20 17 24 18 17 22 21 21 23 24 25 31 27 29 30 33 34 32 37 41 40 39 43 49 56 55 55 56 59 60 60 63 64 63 64 63 64 67 69 70 71 72 72 74 74 75 75 75 74 74 75
15 13 11 8 7 6 3 -2 -1 -0 6 10 21 25 20 14 15 20 21 19 23 25 27 25 24 25 29 34 38 34 34 38 40 38 46 54 52 50 52 53 58 60 61 61 64 62 61 62 65 67 69 69 69 71 71 71 73 73 74 73 73 74 75
12 11 10 11 7 6 4 2 -3 1 7 14 17 20 20 20 20 23 20 19 23 28 24 25 27 30 32 29 37 33 30 33 35 36 52 50 50 52 53 54 56 59 57 55 56 56 59 63 64 65 65 65 65 66 70 70 71 73 74 74 74 74 73
11 10 11 10 9 7 5 1 -0 -1 6 6 7 9 12 18 23 21 19 17 23 27 25 24 28 35 35 29 36 45 33 33 30 33 46 49 51 52 51 51 53 58 59 57 56 57 61 63 63 63 64 65 64 64 66 67 70 71 72 72 72 74 73
14 11 13 12 9 7 5 1 -0 -2 0 9 10 13 12 15 20 22 19 19 29 24 22 31 28 35 29 32 36 38 35 29 39 36 35 53 54 55 54 51 49 53 58 58 57 59 64 63 62 63 63 64 64 64 65 65 67 69 70 71 73 74 74
13 14 13 14 11 9 6 2 -2 -2 -1 9 14 16 18 14 15 16 22 21 25 29 34 35 28 32 24 29 30 34 34 34 32 37 31 45 52 53 48 45 45 51 57 58 60 63 65 64 65 63 63 63 63 64 63 65 67 69 69 70 71 74 74
16 16 16 16 16 13 10 7 3 -3 -4 0 8 14 19 15 16 17 17 23 21 27 44 43 30 54 29 34 33 39 28 31 32 39 36 61 49 50 46 46 48 58 61 64 65 63 65 66 67 65 65 65 64 63 63 65 66 68 69 69 70 73 73
21 19 17 14 14 14 11 8 7 3 -2 -1 3 9 26 19 15 13 15 19 20 28 40 49 34 28 24 25 26 30 33 45 34 35 54 58 59 58 55 57 60 62 61 65 66 66 68 67 65 66 65 65 63 64 62 64 65 66 67 68 69 71 71
20 20 18 14 14 12 11 11 8 7 2 3 3 6 19 18 34 32 23 22 26 29 37 40 36 31 42 34 27 26 35 48 37 53 57 60 60 60 59 62 61 59 63 64 66 67 68 67 65 67 67 65 64 64 64 64 64 64 66 68 68 69 70
22 24 30 19 18 14 10 10 10 6 4 3 6 12 11 7 28 29 29 37 32 30 24 33 28 35 33 30 37 36 43 38 56 63 62 58 60 59 58 62 63 64 67 66 66 67 64 64 66 66 66 65 65 67 66 64 64 64 67 68 70 69 69
26 21 23 16 15 12 11 9 7 6 5 6 7 6 4 26 25 16 33 40 35 31 29 34 41 33 44 40 45 36 40 56 42 55 62 65 60 61 63 64 65 65 67 67 66 66 66 66 66 66 66 65 65 65 64 64 63 63 64 68 67 68 69
17 19 20 18 14 12 13 10 7 7 7 8 9 17 9 25 14 11 34 45 40 34 24 26 35 43 47 29 34 33 36 42 48 57 53 53 53 59 60 66 65 65 65 67 67 66 68 67 65 65 65 65 65 66 64 64 62 63 65 66 67 67 69
18 17 17 19 19 15 13 12 11 8 7 7 5 5 5 7 30 27 24 45 36 25 25 24 26 40 30 31 38 38 39 33 52 45 57 33 38 49 62 67 69 71 69 70 71 71 71 68 66 63 65 65 64 64 63 62 63 62 65 66 67 66 68
21 19 18 17 18 19 17 12 11 6 4 5 4 2 3 16 14 9 12 29 36 27 36 32 31 35 36 40 37 29 38 39 33 40 33 37 41 38 60 67 66 70 72 73 76 74 72 68 66 64 64 65 65 60 60 59 62 61 64 66 66 65 66
24 22 20 20 18 18 20 20 14 14 10 8 6 9 6 11 24 25 16 23 23 25 30 27 31 35 42 36 42 46 48 37 38 40 37 43 50 50 60 64 65 70 71 72 73 74 72 69 67 64 65 65 64 60 60 59 57 59 65 66 66 67 68
25 23 21 20 21 21 21 21 19 16 16 17 14 9 12 10 7 12 17 16 23 32 35 29 29 22 30 36 35 36 41 52 44 43 43 41 41 59 55 61 69 66 66 68 71 70 69 68 66 64 64 64 65 63 62 62 61 58 65 66 67 68 68
25 24 23 23 25 21 20 25 21 22 18 15 15 10 8 9 11 11 13 17 29 31 27 30 33 33 35 39 41 39 41 47 55 47 46 42 40 41 51 53 59 66 68 66 68 69 70 70 66 65 64 63 65 64 63 64 64 63 68 68 69 68 69
22 25 27 27 21 21 31 25 24 22 20 18 17 17 15 17 18 14 16 18 23 27 24 27 35 48 48 46 43 34 36 42 42 54 50 50 48 53 58 64 59 68 72 71 71 71 67 65 68 68 66 65 66 65 66 65 66 67 67 71 71 70 70
26 27 26 20 21 32 28 28 28 29 24 20 21 21 20 17 19 27 25 32 33 37 30 23 30 35 27 24 37 51 36 33 37 31 33 40 42 44 45 62 64 71 70 71 67 71 69 70 68 67 65 63 62 62 63 66 68 69 70 75 75 73 73
25 26 26 25 35 32 31 31 29 29 31 30 28 25 27 26 24 26 38 41 37 34 43 24 23 28 18 27 29 21 18 31 28 23 28 27 32 36 47 50 66 73 70 71 68 74 74 70 69 68 67 66 66 65 64 65 72 71 72 75 76 77 79
29 27 28 29 29 29 33 37 34 34 35 37 41 41 39 42 37 37 37 38 42 47 43 48 37 35 33 29 29 28 16 17 21 24 24 23 34 38 40 45 62 71 71 72 71 71 72 72 69 70 69 70 71 71 69 71 72 72 74 79 77 78 78
29 29 28 28 28 31 37 37 33 34 37 35 38 37 33 39 37 42 45 39 44 45 39 45 50 43 28 27 33 33 26 19 18 19 21 17 25 31 39 42 55 65 69 69 66 69 70 69 71 73 73 72 73 73 72 72 74 74 76 78 77 77 77
36 34 30 29 34 34 44 39 36 35 38 37 38 31 29 55 49 49 50 49 49 49 51 48 48 50 45 38 31 19 18 25 27 31 38 44 36 37 40 36 41 69 74 74 69 67 68 72 73 74 74 74 74 74 73 73 72 73 75 77 77 76 76
35 39 34 34 34 46 42 39 38 39 39 38 33 30 29 52 51 49 52 49 52 53 53 53 49 51 51 48 45 37 21 20 27 37 46 50 47 46 35 40 55 71 73 71 70 64 68 74 73 74 75 75 75 75 75 75 73 72 76 77 77 76 76
31 33 33 33 34 42 45 43 39 41 38 34 32 49 53 54 51 51 51 53 54 58 59 60 60 58 52 47 39 36 36 28 56 53 55 54 51 49 57 65 66 71 68 72 71 68 75 76 75 75 76 75 76 76 76 75 76 75 78 77 77 76 75
28 32 32 30 30 42 41 46 41 40 39 37 51 53 53 51 52 51 54 59 60 59 60 61 62 62 64 63 54 48 45 42 55 59 57 58 52 56 58 65 67 67 68 68 67 70 71 72 72 75 75 77 77 76 76 76 75 76 76 75 75 74 74
27 27 28 29 32 42 45 45 43 43 42 53 54 51 50 53 56 59 59 60 60 59 60 60 60 61 61 63 63 60 54 57 51 57 59 58 57 53 52 53 68 67 71 72 72 72 69 72 73 74 75 76 76 76 76 76 75 74 74 74 74 73 72
29 30 30 52 49 46 44 47 49 49 51 51 51 54 57 59 59 60 59 61 61 60 59 59 60 61 62 62 62 63 63 64 65 66 66 64 62 61 62 58 66 67 72 73 72 72 72 74 76 77 77 76 75 75 76 75 75 74 74 74 73 73 72
50 48 50 48 46 46 45 45 46 46 49 54 54 56 57 58 59 59 58 59 60 60 61 59 60 61 63 63 63 64 64 64 66 69 68 68 68 68 68 66 67 67 68 69 69 72 74 76 76 76 75 75 75 76 76 75 75 75 74 73 73 72 72
45 46 53 47 48 49 47 45 47 48 50 53 56 57 57 55 55 54 55 56 57 58 58 60 61 60 61 63 65 65 65 65 65 65 67 67 68 69 67 68 71 71 69 66 67 69 70 71 72 72 73 75 75 75 75 75 74 74 73 72 71 72 72
47 51 53 53 53 54 53 50 47 49 51 52 53 53 53 54 54 54 54 54 54 54 56 59 58 57 59 60 62 63 65 67 67 66 66 66 67 68 67 67 67 66 67 67 67 68 68 70 71 72 73 73 73 74 73 73 73 73 72 71 70 70 70
53 55 53 52 52 52 51 52 52 51 50 51 51 51 51 50 50 51 52 53 54 54 55 57 59 59 60 60 61 61 61 63 65 67 66 67 68 68 68 68 70 69 70 70 71 69 70 72 72 73 74 74 73 73 73 72 71 70 69 69 70 69 68
52 51 53 53 47 48 50 50 50 51 51 50 50 50 50 50 50 50 49 48 49 50 53 58 59 58 59 60 61 61 62 62 64 64 64 65 66 67 68 67 68 67 68 68 69 70 71 73 73 73 73 73 72 70 70 70 70 70 70 69 68 68 68
49 53 55 56 52 52 51 51 49 48 48 48 48 48 48 48 49 49 49 49 50 49 49 50 53 57 58 58 58 59 61 60 62 63 65 65 64 66 65 67 68 69 70 71 71 71 71 71 70 70 70 70 71 70 71 70 69 70 70 69 67 66 67
54 56 56 55 51 50 50 50 51 49 49 48 48 48 48 48 48 49 48 48 49 50 51 51 51 52 54 53 55 56 57 57 59 61 59 61 63 64 64 66 68 68 69 69 69 70 70 70 69 69 66 67 70 69 70 70 70 71 70 69 67 66 66
55 57 57 55 51 51 52 52 51 50 51 51 51 51 50 50 50 51 51 51 51 51 52 51 51 52 53 55 54 53 54 58 57 56 58 59 60 63 62 64 66 67 68 68 68 69 69 70 69 68 68 69 69 68 71 69 69 70 70 68 65 65 67

ECMWFFLT2_sfc_dewp_009.txt.gz
Dewpoint
14 13 14 12 11 7 7 4 4 6 14 16 25 29 27 30 22 18 31 27 28 27 27 31 34 33 36 37 39 39 42 44 45 46 48 49 50 51 53 56 57 60 61 62 62 62 63 64 65 65 66 66 68 70 71 72 73 73 73 73 73 73 73
14 14 15 14 13 11 7 2 5 14 9 13 21 18 20 20 21 22 17 16 25 26 24 27 27 32 31 33 36 37 38 44 44 45 48 50 51 52 54 57 57 59 61 62 62 62 62 63 65 65 65 66 68 70 71 72 73 73 73 73 73 73 73
14 13 13 14 14 13 8 4 5 3 11 8 25 27 20 18 17 18 21 21 21 28 32 26 24 30 33 33 35 35 38 44 45 45 46 50 50 52 54 55 57 58 60 61 62 61 62 63 65 65 65 66 68 69 71 72 72 73 73 73 73 73 73
13 12 11 11 12 11 8 6 5 2 9 16 17 21 23 26 21 21 16 18 21 33 27 31 27 26 30 34 35 34 35 41 45 45 45 47 48 51 53 54 56 58 58 59 60 61 61 62 64 65 65 66 67 68 71 71 72 73 73 73 73 73 73
13 11 11 10 11 9 6 3 4 5 8 15 16 16 12 15 19 22 23 19 22 31 34 27 30 36 28 31 36 36 34 39 43 44 45 46 47 49 52 54 55 56 57 58 59 60 61 62 65 65 65 65 66 68 69 71 72 72 73 73 73 73 73
14 14 14 12 12 9 6 4 4 4 5 13 7 9 9 8 15 20 18 17 32 33 21 35 31 30 36 32 36 37 35 36 41 42 43 45 47 50 52 53 54 55 56 56 58 60 61 62 64 65 65 65 66 67 68 70 71 72 72 73 73 73 73
14 16 16 15 13 11 8 6 4 6 6 9 15 11 20 9 10 16 28 22 26 36 35 28 30 32 36 34 37 38 37 35 38 40 40 44 49 52 53 54 55 55 57 57 58 60 61 61 63 65 66 65 66 66 68 69 70 71 72 72 73 73 73
18 16 16 15 14 12 10 8 7 6 5 4 4 17 25 21 22 14 17 20 22 28 26 34 40 37 34 36 37 38 37 36 33 37 42 48 51 53 54 54 54 54 56 58 59 61 62 62 63 64 65 65 65 66 67 68 69 71 71 72 72 72 72
19 19 23 14 13 12 11 10 8 7 6 5 4 6 32 13 18 21 18 15 23 36 34 34 47 48 33 32 35 32 31 36 35 35 47 49 52 52 52 52 52 53 56 58 60 61 62 62 63 63 64 65 65 65 65 67 68 70 71 71 72 72 72
16 17 17 18 12 11 11 12 9 8 6 6 5 3 19 20 26 23 21 20 26 33 28 23 23 29 39 43 41 35 36 35 37 36 51 50 51 52 51 51 51 53 58 59 60 60 61 62 63 64 64 64 64 64 64 65 66 68 70 71 71 71 71
17 20 29 38 27 13 11 12 12 9 6 5 5 14 14 13 32 28 23 26 37 38 24 21 20 25 32 40 36 48 42 50 56 45 52 50 51 52 51 54 54 55 59 59 60 61 61 63 64 64 63 64 64 65 64 64 65 67 68 70 71 71 71
24 29 26 23 25 16 13 13 12 13 12 7 6 8 6 19 18 18 32 36 23 21 28 35 32 28 30 40 49 48 52 58 60 56 52 58 50 51 54 55 55 57 59 59 60 61 62 63 64 65 64 64 64 64 64 64 64 66 68 69 70 71 71
18 19 22 21 19 20 16 14 14 13 13 13 10 14 11 27 14 12 25 41 37 27 21 22 30 44 47 35 29 36 54 57 58 57 53 51 51 55 58 58 59 59 60 61 62 63 63 64 64 65 65 64 65 65 64 64 64 65 68 69 69 70 71
19 17 16 18 19 18 16 14 14 13 12 12 11 12 12 13 28 26 21 38 41 36 26 28 29 48 42 42 41 33 44 53 56 55 53 52 52 55 56 58 58 60 61 62 63 64 64 64 65 65 65 65 65 65 64 64 64 65 67 68 69 70 71
18 17 17 15 15 16 17 13 12 12 12 11 11 10 11 26 19 19 21 29 35 43 36 31 36 41 47 44 39 33 36 47 54 54 52 51 52 53 56 57 57 59 61 62 63 64 64 64 65 65 65 65 65 64 64 63 64 64 66 68 68 69 70
30 17 17 16 15 14 15 18 15 13 12 12 10 13 10 14 28 32 25 24 22 30 39 38 39 40 45 38 45 42 41 37 50 54 52 50 52 52 55 58 57 58 60 61 62 63 64 64 65 65 65 65 65 65 64 64 63 64 65 67 68 68 69
30 28 19 17 16 15 15 16 17 21 16 15 13 11 16 14 11 16 26 25 29 32 44 35 34 33 37 45 47 48 47 52 47 46 49 49 53 53 55 58 58 56 58 60 62 62 63 63 64 64 65 65 65 65 65 65 65 65 64 65 67 69 69
29 25 24 18 19 15 16 21 21 21 20 19 14 14 21 15 12 13 19 30 38 40 45 34 33 30 29 32 42 41 41 45 50 50 50 44 49 56 58 58 58 58 59 60 61 62 62 64 64 64 65 65 65 65 64 65 64 65 64 64 66 68 69
31 32 37 30 23 21 29 23 20 20 19 20 23 24 18 24 28 14 15 15 16 21 25 32 39 44 46 47 42 40 34 34 34 39 41 49 48 56 58 60 61 61 62 63 63 63 63 64 64 65 64 64 65 64 64 64 64 64 64 64 65 67 67
31 31 30 23 25 40 36 29 29 37 27 23 30 26 28 33 37 39 41 40 44 46 46 47 46 45 42 44 54 49 43 41 34 31 34 43 48 47 58 61 63 64 65 66 67 68 68 67 65 64 63 63 63 63 63 63 63 63 63 64 64 65 66
25 28 30 28 38 32 38 34 34 32 38 41 36 30 41 47 43 41 43 49 49 44 46 47 47 47 43 42 39 41 42 46 45 39 38 40 46 46 49 56 60 64 67 67 67 70 70 69 67 64 63 62 63 63 62 62 63 62 62 63 64 65 65
38 28 26 29 27 25 31 40 39 36 37 40 45 47 43 51 46 47 49 50 51 51 50 49 49 48 45 44 43 44 44 36 31 29 31 25 28 38 37 51 56 62 67 66 67 68 68 68 67 65 63 62 62 63 62 62 61 62 61 62 64 65 65
39 33 27 23 27 29 38 46 37 39 38 36 41 39 39 53 50 50 51 54 55 55 53 51 51 47 46 48 50 53 53 49 43 39 41 30 20 24 32 31 46 58 64 67 66 67 67 67 67 67 65 63 62 63 62 62 62 61 61 62 64 65 65
38 37 30 25 31 34 48 43 32 32 40 38 40 34 39 54 53 56 58 58 58 58 59 58 58 56 54 55 58 60 58 55 52 49 54 52 53 50 49 41 49 56 62 67 67 67 66 66 67 67 67 65 63 63 63 62 61 61 61 62 65 65 65
34 39 37 37 35 51 46 42 40 39 39 43 33 32 46 56 57 59 58 59 59 60 60 60 59 60 60 61 62 63 62 60 58 56 55 55 54 51 54 63 66 64 67 68 68 68 69 69 68 68 68 67 65 64 63 63 62 61 62 62 65 68 69
32 34 35 37 41 51 49 44 44 45 40 36 38 53 58 59 59 59 59 58 59 59 59 60 60 61 62 63 63 64 63 63 64 64 60 59 59 60 60 64 70 67 67 68 68 69 70 70 70 70 70 69 68 66 65 63 63 63 64 65 69 73 73
35 39 41 37 30 46 45 44 49 51 49 49 55 58 59 59 60 59 59 59 59 59 60 61 62 62 63 63 63 64 64 64 65 66 66 65 63 63 63 64 66 69 70 68 68 67 68 71 71 70 70 70 69 69 68 67 66 67 71 73 74 74 74
42 34 33 34 40 49 49 49 47 58 56 57 59 58 57 58 59 59 59 59 60 61 61 61 61 61 62 63 63 64 65 65 65 65 66 67 67 66 66 67 67 67 67 67 67 66 67 68 68 69 71 71 70 70 70 70 71 75 75 75 75 74 73
46 44 45 48 50 52 51 51 53 55 57 58 58 57 57 57 58 59 57 57 58 60 59 58 59 60 60 61 61 62 63 64 65 65 65 65 65 65 65 66 68 66 65 65 66 66 67 68 69 69 69 68 70 71 73 74 75 75 75 74 74 73 73
51 47 51 54 55 54 54 54 55 56 56 56 55 54 54 55 55 56 55 57 58 57 58 57 57 58 59 59 59 60 61 63 64 65 66 66 66 65 64 64 66 65 65 65 66 67 67 69 70 71 70 69 67 68 70 70 69 69 68 68 68 69 69
45 39 50 54 54 54 55 57 55 55 54 53 54 54 54 54 54 54 55 56 57 57 56 56 56 57 58 57 58 60 61 62 63 64 65 66 66 66 66 65 65 65 64 65 66 66 65 67 69 70 70 69 69 69 69 70 70 69 69 68 68 69 70
49 49 53 55 55 55 56 58 52 52 52 52 52 53 53 52 52 52 52 54 55 55 54 55 54 55 56 57 57 58 59 60 62 63 64 65 66 66 66 67 67 65 65 65 66 66 66 67 69 69 69 69 69 69 69 68 68 68 67 67 68 68 69
50 51 55 56 55 54 55 54 52 51 50 50 50 49 49 49 49 49 49 50 51 52 53 55 55 55 55 56 57 57 58 58 59 60 62 64 64 65 65 65 66 67 67 67 67 67 67 68 69 69 70 69 69 69 70 70 70 68 67 66 66 68 69
47 49 52 55 51 50 52 53 52 49 50 49 48 48 48 48 48 48 49 51 51 51 51 53 54 54 55 56 56 57 57 58 58 59 61 64 64 64 66 66 65 65 66 66 67 67 67 68 69 69 69 69 70 70 69 69 69 69 68 69 70 69 69
48 52 54 55 56 56 55 55 53 50 49 49 48 47 47 48 50 50 51 51 51 50 51 52 52 53 54 55 55 55 56 57 59 59 60 63 66 66 67 66 66 66 67 68 67 67 67 67 68 70 69 68 68 68 67 67 68 68 69 68 68 68 68
53 53 54 56 57 55 56 55 53 53 53 50 50 50 50 50 51 51 51 51 50 50 51 52 53 53 54 55 55 55 56 56 58 59 60 61 64 66 66 66 66 66 65 66 66 67 68 68 69 69 70 70 69 69 70 70 69 69 68 68 68 67 68
51 54 56 58 57 57 57 58 57 56 54 54 52 52 51 51 51 51 50 51 51 51 52 53 53 54 54 55 55 55 56 57 58 59 59 61 62 64 64 65 66 67 67 67 66 67 68 68 69 70 68 69 70 70 70 69 69 68 68 67 67 67 67

ECMWFFLT2_sfc_dewp_012.txt.gz
Dewpoint
15 14 16 12 8 6 8 5 5 10 18 14 22 35 30 30 26 16 31 27 28 33 26 31 39 37 41 43 43 42 44 45 46 46 47 48 50 50 52 54 56 59 60 61 61 61 62 63 64 64 65 66 66 67 68 69 69 70 70 71 71 72 72
16 16 15 14 10 13 9 3 6 14 17 13 16 14 19 18 16 21 20 16 21 25 23 35 33 38 38 42 43 43 44 44 45 45 46 48 49 51 52 53 55 58 60 61 61 61 62 63 64 64 65 66 67 67 68 69 69 70 70 71 71 72 72
17 18 16 13 13 10 5 4 9 5 13 10 21 22 12 13 14 17 20 20 22 24 27 29 28 35 37 39 42 43 44 44 44 45 46 47 48 51 52 53 54 56 58 60 61 61 62 63 64 64 65 66 67 67 68 69 69 70 70 71 71 72 72
17 17 17 14 13 12 10 9 7 9 12 9 14 17 22 20 15 17 15 22 19 29 26 32 24 31 36 37 39 41 43 44 44 44 46 47 48 50 52 53 53 55 56 59 60 61 61 63 64 65 65 66 66 67 69 69 70 70 71 71 71 71 72
16 15 16 14 13 12 11 8 8 11 11 20 7 22 11 19 23 20 18 15 23 31 34 29 26 26 31 36 38 40 42 43 44 44 45 47 48 48 50 53 54 54 55 57 59 60 61 62 64 65 65 65 66 67 69 69 70 70 71 71 71 72 72
14 14 16 15 14 13 12 10 9 7 5 14 6 7 10 11 18 21 18 14 28 31 34 33 29 27 26 33 36 38 40 42 43 44 44 46 48 49 49 51 53 54 55 56 58 60 61 62 63 64 65 65 65 67 68 69 70 70 71 71 72 72 72
13 15 15 15 14 14 13 12 11 12 7 17 11 10 23 19 13 28 27 18 18 30 29 29 33 33 32 32 34 37 38 39 42 43 44 46 48 49 49 51 53 54 55 57 58 60 61 62 63 64 65 65 65 66 68 69 70 70 71 71 72 72 72
17 16 17 17 15 14 13 13 13 11 8 7 12 21 26 14 24 15 18 18 17 33 39 34 32 33 30 35 34 35 36 37 40 43 44 45 47 49 49 50 52 54 55 57 59 61 61 62 63 64 64 64 65 66 67 69 69 70 71 71 72 72 72
16 14 16 15 17 14 13 13 13 11 10 7 9 21 32 18 17 16 15 11 18 35 37 25 23 27 32 36 36 36 35 37 41 43 45 45 47 48 49 50 52 54 55 57 60 61 62 62 63 64 64 64 64 65 67 68 69 70 71 71 72 72 72
15 14 12 12 15 14 12 12 12 11 9 7 10 6 18 14 27 24 17 15 28 37 37 23 19 18 25 39 41 38 37 37 38 44 45 46 46 48 49 50 52 53 55 57 59 61 62 62 62 64 64 64 64 65 66 68 69 70 71 71 72 72 72
15 18 23 31 30 15 11 11 10 9 8 7 7 17 15 11 25 22 24 31 28 24 26 25 17 15 13 18 26 47 40 37 41 43 46 46 47 48 48 50 52 54 56 57 58 60 61 61 62 64 64 64 64 65 65 67 68 70 71 71 72 72 72
18 16 18 20 21 14 13 11 10 9 8 7 7 9 8 27 18 12 20 36 29 26 30 29 24 17 19 28 37 48 53 46 47 44 46 54 46 47 49 50 52 54 56 57 58 59 60 61 62 63 64 64 64 65 65 66 68 69 70 71 71 72 72
18 16 15 14 19 17 14 12 11 9 8 8 6 12 13 22 12 12 21 35 29 26 25 27 28 27 31 31 44 47 49 56 55 47 45 47 47 47 48 50 52 54 55 57 58 59 60 60 61 62 64 64 65 65 65 66 67 68 70 70 71 71 71
26 16 16 15 13 17 19 14 12 11 8 7 7 8 12 15 21 20 29 38 30 33 25 23 24 27 29 38 41 48 55 54 55 51 47 45 46 46 48 50 52 54 55 57 58 59 60 60 61 61 63 64 65 65 65 65 66 68 69 70 71 71 71
29 19 17 16 15 14 15 17 14 12 10 8 8 8 10 19 15 22 22 27 27 32 37 33 32 33 42 44 41 47 54 55 54 51 50 49 49 49 50 51 52 53 55 57 58 59 60 61 61 62 63 63 64 64 65 65 66 67 69 70 70 71 71
30 25 16 16 17 16 16 18 18 14 12 12 11 12 12 17 22 25 23 26 23 30 35 39 27 38 43 37 39 47 52 55 55 51 50 50 51 53 53 54 54 55 56 58 59 59 60 61 62 62 63 63 64 64 64 65 65 66 68 69 69 70 71
30 30 28 16 15 16 16 17 17 18 15 14 13 15 21 19 22 22 20 19 26 25 34 34 30 22 36 36 42 44 47 54 54 51 51 51 52 54 56 56 57 56 57 58 60 60 60 61 62 63 64 63 64 64 65 65 65 65 66 67 69 70 70
29 30 31 26 17 14 15 19 16 18 16 17 15 14 15 17 17 19 21 21 32 31 32 33 31 26 31 42 44 46 48 52 54 53 52 51 52 53 55 56 56 56 58 59 60 60 61 61 62 63 64 64 64 64 64 65 65 65 66 66 68 69 70
31 31 31 27 16 15 22 23 20 17 17 20 19 35 34 31 28 33 36 38 38 38 32 32 34 39 43 50 51 52 49 43 46 53 53 52 53 53 55 56 56 57 57 58 59 61 61 61 62 63 64 64 64 64 64 65 65 65 65 66 67 68 69
34 32 30 24 18 32 40 23 22 27 20 22 26 39 45 49 46 46 43 42 45 45 43 40 40 38 44 50 55 57 57 50 42 38 43 45 48 52 54 56 56 57 57 58 59 60 62 63 63 63 63 64 64 64 64 65 65 65 65 66 66 67 68
31 32 30 28 36 32 33 29 30 25 23 23 22 39 45 50 52 48 45 47 47 49 48 49 47 43 44 48 53 58 60 58 52 42 39 38 40 46 53 55 55 56 56 57 58 61 62 62 63 63 63 64 64 64 64 65 65 65 65 65 66 67 68
38 31 30 36 26 24 31 38 36 41 37 27 35 45 46 52 54 55 52 50 51 50 51 51 51 47 39 50 53 58 61 61 58 54 50 48 41 46 49 53 55 56 56 56 58 58 59 61 62 63 63 64 65 65 65 65 65 65 65 65 65 66 67
37 34 30 31 29 32 39 43 42 40 42 45 47 47 46 51 57 58 57 57 57 55 53 53 51 42 46 50 55 60 62 62 63 63 59 55 54 52 43 48 53 57 59 57 56 58 59 60 62 63 63 64 65 65 65 65 65 65 65 64 65 65 66
39 35 36 32 40 44 45 48 50 49 46 37 37 38 43 51 58 59 58 58 58 58 57 57 57 53 52 54 58 62 63 64 65 65 65 64 61 60 62 66 65 55 61 64 63 61 62 62 63 64 64 64 64 65 65 65 64 64 65 65 65 65 65
41 37 36 42 43 48 48 50 51 50 49 36 28 29 42 56 58 59 58 58 58 57 57 56 57 58 59 60 62 64 64 64 64 65 66 66 65 64 65 66 70 65 58 62 64 64 65 66 66 64 64 63 63 64 64 64 64 64 64 65 65 65 65
39 40 39 40 42 49 50 52 52 50 43 28 32 49 58 59 58 59 59 59 60 61 61 61 61 62 63 64 64 64 64 65 64 65 65 64 64 64 66 68 68 68 68 66 67 68 68 69 70 70 69 65 63 63 63 64 64 64 64 65 65 65 65
45 42 40 35 31 45 50 52 51 53 45 46 57 59 59 60 59 59 59 60 61 61 61 61 61 61 61 61 62 63 64 65 65 65 65 64 64 64 64 65 66 67 66 67 67 68 69 69 69 70 69 68 68 68 67 67 67 66 66 65 64 64 65
41 41 37 38 45 50 52 52 50 54 56 57 59 58 58 59 59 58 58 59 60 60 60 59 59 59 60 60 61 62 63 64 64 65 65 65 65 65 64 64 65 66 66 67 68 68 69 69 69 69 69 68 68 69 69 71 72 70 69 67 64 65 65
46 44 48 52 52 54 55 54 54 55 55 56 58 58 57 56 57 57 57 58 58 59 59 58 58 58 59 59 60 61 61 62 63 64 65 66 66 66 65 65 65 65 65 66 68 69 69 69 68 68 68 68 68 68 68 70 72 72 72 71 70 70 71
54 54 53 54 55 55 55 56 57 55 54 54 54 55 55 56 57 57 56 57 57 57 57 57 57 57 57 58 58 59 59 60 61 62 64 65 66 65 66 65 65 64 65 66 68 68 69 69 68 68 69 69 68 68 69 69 70 71 71 71 71 71 71
42 39 53 54 54 53 54 54 54 54 54 51 51 54 55 55 55 55 55 55 55 56 56 56 56 56 57 56 57 57 58 58 59 60 61 63 63 64 64 65 65 65 65 66 67 68 67 68 68 68 67 68 68 68 68 68 68 68 68 70 70 70 70
47 48 52 54 55 53 52 53 54 54 54 52 49 49 51 51 52 52 53 54 54 54 54 54 54 54 55 55 55 56 57 57 58 60 61 62 62 64 64 64 65 66 66 67 67 67 67 67 68 67 68 68 68 68 68 69 69 69 69 69 69 70 70
51 53 53 52 54 52 51 52 54 55 55 52 49 49 49 51 51 51 51 52 53 53 53 54 53 53 54 55 55 55 56 57 58 60 62 63 63 64 65 64 65 66 66 67 67 68 67 68 67 67 67 67 68 68 68 69 69 68 68 68 68 68 68
46 48 50 52 49 49 51 52 54 55 56 56 52 50 50 51 50 50 50 51 52 53 53 54 54 53 54 54 55 55 55 56 57 60 62 63 63 64 65 66 66 66 67 67 67 67 67 66 66 67 67 67 67 68 68 68 68 68 68 68 68 68 68
45 51 52 53 54 54 53 54 55 56 56 57 55 53 51 50 50 50 50 51 51 52 53 54 54 54 54 54 55 55 55 56 57 58 59 61 62 63 64 65 65 66 66 68 67 67 67 66 65 66 66 66 67 67 67 67 67 67 67 68 68 68 67
52 53 54 56 55 53 54 55 55 56 56 57 56 55 54 52 51 51 52 52 52 52 52 53 54 54 54 55 55 55 55 56 58 59 59 60 61 63 64 64 64 65 65 66 66 66 67 68 66 65 66 66 65 66 67 67 66 67 67 67 67 67 67
50 55 56 56 56 55 55 56 56 57 58 56 56 56 55 53 52 52 52 53 54 53 52 52 53 54 54 55 55 55 56 57 58 60 60 60 61 62 64 64 64 64 65 66 65 65 65 65 66 67 66 66 66 65 66 67 67 67 67 67 67 67 67

ECMWFFLT2_sfc_dewp_015.txt.gz
Dewpoint
16 16 19 18 14 13 13 9 10 11 21 14 17 30 30 29 22 17 32 26 26 30 27 27 34 35 39 42 42 42 43 44 45 45 44 45 48 51 54 56 57 57 58 59 59 60 60 61 61 62 64 65 65 66 67 68 68 68 69 69 69 69 70
16 16 18 16 14 14 8 8 10 18 24 16 14 10 14 13 13 19 21 18 20 23 23 37 34 36 37 40 42 42 42 43 45 45 46 45 46 49 52 55 56 57 58 59 59 59 60 60 61 62 63 64 65 66 66 67 68 68 68 69 69 69 69
15 17 16 16 14 13 10 8 13 9 14 10 18 19 8 9 11 13 20 23 23 24 27 28 31 34 35 38 41 42 42 42 44 45 46 46 46 47 49 52 55 57 57 58 59 59 59 60 62 62 63 64 65 65 66 67 67 68 68 69 69 70 70
13 16 16 14 14 15 12 11 9 12 14 12 12 13 24 15 11 18 11 19 15 27 23 27 25 33 35 36 38 41 42 42 43 44 45 47 47 47 47 50 53 55 57 58 58 58 59 60 61 62 62 63 64 65 66 66 67 68 68 69 70 70 70
14 13 17 14 14 14 13 8 8 9 14 18 10 23 10 13 16 14 14 12 17 27 28 27 25 30 35 36 38 40 41 42 42 43 44 46 48 48 47 49 51 53 55 57 58 59 59 59 61 62 62 63 63 64 65 66 67 67 68 69 69 70 70
15 14 17 16 15 15 14 10 8 7 6 13 8 10 14 20 16 18 14 9 18 31 32 28 27 29 31 35 38 40 41 42 43 43 44 45 47 48 48 48 49 51 54 56 57 59 59 59 60 61 62 62 63 64 65 66 66 67 67 68 69 70 70
12 14 16 18 16 16 15 13 10 8 7 14 10 11 12 19 12 27 23 16 15 27 32 30 28 29 27 28 37 39 41 42 43 43 44 45 46 47 48 49 49 50 52 54 57 59 59 59 60 61 62 62 63 64 64 65 66 67 67 68 69 70 70
18 17 16 17 19 17 16 15 13 9 7 8 7 7 18 13 21 16 17 17 17 28 35 33 28 31 29 28 32 37 38 40 43 44 44 45 46 47 48 49 50 50 51 53 56 59 60 60 61 61 62 63 63 64 64 65 66 66 67 68 68 69 70
15 17 22 18 19 18 16 15 14 12 9 9 12 23 29 14 17 16 15 10 15 30 44 36 30 28 27 30 33 36 36 39 41 43 45 46 47 47 48 49 50 51 51 53 56 58 60 60 61 62 63 63 63 64 64 65 66 66 67 68 68 69 69
15 14 14 15 16 16 17 18 14 13 11 9 12 7 20 15 26 22 16 15 27 33 35 34 30 28 28 29 33 35 36 37 38 41 43 46 47 48 48 49 49 50 52 54 55 57 59 60 61 62 63 63 63 64 65 65 66 66 67 68 68 69 69
24 28 31 30 35 17 14 13 14 13 12 11 10 14 18 15 24 19 20 26 26 23 24 29 26 26 21 20 30 36 36 37 39 40 43 44 46 47 47 49 49 50 53 55 56 57 58 60 61 62 63 63 63 64 65 65 66 67 67 68 69 69 69
34 31 32 31 32 21 14 14 13 13 13 13 11 12 12 27 19 15 25 36 23 23 27 28 28 25 24 23 20 27 37 40 38 39 42 52 45 46 47 48 50 51 53 55 56 57 58 59 60 61 63 63 64 64 64 65 66 67 68 68 69 69 70
29 30 30 30 31 28 19 13 13 12 13 14 12 15 23 25 15 14 26 32 26 26 27 26 27 26 23 20 20 24 30 34 41 41 39 41 44 45 46 48 49 51 52 55 56 57 58 59 60 61 63 63 64 64 64 65 66 67 68 69 69 69 70
29 29 29 30 29 27 22 15 13 12 12 12 13 13 17 17 21 21 27 31 22 22 22 25 26 30 29 27 37 42 41 47 50 42 39 38 40 43 45 47 48 51 52 54 56 57 58 59 60 61 62 63 64 64 64 65 66 67 68 69 69 70 70
29 29 30 29 28 30 27 17 14 12 12 12 12 12 14 22 16 16 25 32 28 28 26 19 20 20 27 37 38 36 36 43 53 50 42 40 41 43 45 47 48 50 52 54 56 58 59 60 60 61 62 63 64 64 64 64 66 67 68 69 69 70 70
27 28 28 27 28 30 29 26 18 14 12 12 11 14 13 19 21 21 23 26 25 27 27 32 33 33 33 29 34 38 40 44 53 53 47 42 42 43 45 47 48 50 52 53 56 57 58 59 60 61 62 63 63 64 64 64 65 67 68 69 69 70 70
26 27 27 27 28 30 25 23 21 17 15 14 12 13 18 18 16 18 17 14 21 22 28 27 29 28 28 34 41 42 44 48 54 54 52 48 44 43 46 47 49 49 51 53 55 56 57 58 60 61 62 63 63 64 64 64 65 66 67 68 69 70 70
25 25 26 27 31 27 22 24 22 18 15 15 13 11 12 14 16 16 15 15 19 21 27 25 24 23 24 38 45 48 48 48 52 54 54 53 52 52 49 48 48 50 52 53 55 56 57 58 59 60 62 62 63 64 64 65 65 66 67 68 69 69 70
25 25 27 30 28 28 32 26 22 18 16 17 15 19 26 18 31 34 28 23 21 24 24 26 26 39 49 51 58 59 60 54 49 53 53 53 54 54 55 54 52 52 53 54 56 57 58 59 59 61 61 62 63 64 64 65 65 66 66 67 68 69 69
29 28 29 27 27 33 33 32 34 47 25 20 32 41 45 49 52 46 33 32 28 34 37 42 51 55 56 55 57 60 62 61 58 47 43 49 51 50 53 55 56 56 54 55 56 57 59 60 60 60 60 61 62 63 64 65 65 65 66 67 67 68 69
24 26 26 26 31 31 33 35 46 47 46 43 30 23 35 49 53 47 37 38 44 45 39 47 52 53 51 49 51 56 61 63 63 60 55 52 52 49 50 56 56 58 59 59 58 60 59 60 60 60 60 61 61 62 63 64 65 65 66 66 67 68 68
27 24 29 33 30 28 32 43 47 48 49 50 50 45 36 50 55 56 49 43 45 43 42 47 48 47 44 46 48 54 61 63 64 65 64 63 61 62 64 61 56 59 58 59 59 60 60 60 60 60 61 62 62 62 63 64 64 65 65 65 66 67 68
32 34 29 30 29 31 42 45 47 49 51 51 51 41 32 46 55 57 54 52 53 44 43 44 44 42 42 45 52 55 63 64 64 65 64 64 64 64 65 66 67 67 60 58 58 61 61 60 61 61 62 62 63 63 63 64 64 64 65 65 65 66 67
37 36 33 32 37 41 45 47 48 50 52 53 40 28 30 46 56 58 57 56 55 55 49 44 44 38 42 46 52 61 64 64 64 64 64 64 64 64 64 65 67 67 66 62 58 58 58 60 62 63 63 63 63 63 64 64 64 64 64 65 65 66 66
40 38 35 36 37 44 48 48 50 52 53 44 26 25 36 53 57 58 57 58 57 56 56 54 53 57 53 56 61 64 64 64 64 65 65 65 64 64 64 65 67 66 66 62 60 58 58 60 62 63 64 64 64 64 64 64 64 64 64 65 65 66 66
37 39 37 36 37 43 49 50 52 53 49 32 29 45 57 57 57 58 59 60 60 60 59 60 61 61 61 63 63 63 64 64 64 65 65 65 65 65 65 66 66 66 67 66 66 67 68 68 65 63 64 64 64 64 65 64 64 64 65 65 65 65 66
40 40 38 35 31 41 51 52 52 54 49 50 54 57 58 59 58 59 59 60 59 60 59 60 60 60 60 61 62 62 62 63 64 64 65 64 64 64 65 65 65 66 66 66 67 67 68 68 69 66 63 63 64 64 64 65 65 65 66 66 66 66 66
37 38 35 35 43 49 52 53 49 53 54 54 54 56 56 57 57 57 57 58 58 59 59 59 59 59 59 59 59 60 61 62 63 64 64 65 65 65 65 65 65 66 66 67 68 68 68 68 68 68 65 64 64 64 64 67 70 67 66 66 66 66 66
44 40 43 50 53 55 55 56 56 55 54 52 52 54 56 56 56 57 57 57 58 58 58 58 58 57 58 58 58 58 59 59 61 62 63 64 64 65 65 65 66 65 66 67 68 68 68 67 67 67 67 67 66 65 66 68 70 68 65 65 65 66 66
52 53 53 55 55 54 54 55 56 56 55 53 53 52 51 52 54 55 56 56 57 57 57 57 56 56 56 57 57 58 58 59 60 61 62 63 64 65 65 66 66 66 66 67 67 67 67 67 67 66 67 67 67 68 69 70 70 68 67 66 66 66 66
46 41 53 53 53 53 53 54 55 56 57 56 55 54 54 54 52 52 53 55 55 55 56 55 55 55 55 56 57 57 58 60 61 62 63 63 64 64 65 65 66 66 66 66 66 66 66 67 67 67 66 66 67 68 69 70 70 69 68 67 67 68 68
44 45 52 53 55 53 54 55 55 55 56 55 56 56 55 55 55 55 54 53 54 54 53 54 54 54 55 56 56 57 58 59 60 61 62 62 63 64 65 66 66 66 67 67 67 67 66 67 67 67 66 66 67 67 67 68 69 69 68 67 67 68 68
50 52 51 51 53 53 53 55 56 56 56 56 54 54 55 54 54 54 55 54 54 54 53 54 54 54 54 55 55 56 56 57 58 59 60 61 62 63 65 66 66 67 67 67 67 67 67 67 67 67 66 66 67 67 67 68 68 68 68 67 67 68 68
45 46 47 51 47 47 51 54 55 55 56 56 55 55 54 54 53 54 54 53 54 54 54 54 54 54 54 55 56 57 57 57 57 58 60 61 62 63 64 65 65 66 67 67 67 67 66 66 66 67 67 67 67 67 67 67 68 68 68 67 67 67 67
43 51 51 52 53 52 52 53 56 56 57 56 54 54 54 54 54 53 52 53 52 53 53 55 54 54 54 55 56 56 57 57 58 59 60 61 62 63 64 64 64 65 66 66 66 66 66 66 66 66 66 66 66 66 67 67 67 67 67 67 67 66 66
50 52 52 54 53 51 53 55 56 57 57 57 55 56 56 56 55 54 53 52 52 52 53 54 55 55 55 56 56 56 56 57 58 59 60 61 61 62 63 64 64 65 65 65 65 65 65 65 65 66 65 66 66 65 67 67 67 67 67 66 65 65 65
49 54 54 55 54 54 55 56 57 57 57 57 56 56 56 56 56 56 54 54 53 53 54 54 55 55 56 56 56 56 56 57 58 58 59 60 61 61 63 63 64 64 65 65 65 65 65 65 65 66 65 66 67 66 67 68 68 67 67 67 66 66 65

ECMWFFLT2_sfc_dewp_021.txt.gz
Dewpoint
21 21 23 21 20 19 19 19 19 19 20 18 19 24 24 20 18 17 28 23 23 27 25 23 31 31 31 34 38 40 43 44 50 50 51 53 55 57 58 58 59 62 63 64 64 64 64 65 65 66 67 69 69 69 69 70 71 71 72 72 72 72 72
21 21 22 21 20 21 18 18 18 19 20 18 21 12 26 16 11 21 14 13 17 18 15 38 27 31 28 31 34 36 43 45 47 46 50 52 53 56 58 60 61 62 62 63 62 62 63 63 64 65 68 68 69 69 69 69 70 71 71 71 71 71 72
21 21 21 19 20 19 18 17 19 17 19 20 25 23 15 13 13 14 18 17 14 19 19 29 31 30 31 35 37 37 40 43 44 45 48 51 53 54 57 58 60 60 61 61 63 61 61 63 65 66 67 66 67 68 68 67 69 69 70 69 70 71 72
19 20 20 19 18 18 16 18 17 20 20 21 25 21 25 21 14 16 12 18 11 22 17 18 22 35 36 34 38 37 37 41 45 46 45 48 52 53 55 56 57 59 59 60 60 60 60 62 63 64 64 64 64 65 67 67 67 69 70 70 70 71 71
18 19 20 18 19 17 15 16 16 17 17 20 20 21 17 16 19 18 16 11 16 27 21 19 20 31 39 38 40 45 42 41 41 45 47 48 51 52 53 54 56 57 58 58 59 60 60 61 62 62 62 62 63 63 65 66 67 67 68 68 69 71 70
16 17 20 19 19 19 17 16 16 15 16 18 17 18 17 15 16 20 14 12 23 20 30 26 21 25 32 41 41 43 42 41 46 45 47 51 51 53 53 53 53 55 58 58 58 60 61 60 60 61 61 61 62 63 63 64 65 66 66 67 70 70 70
15 14 17 19 19 19 18 17 16 16 16 18 19 18 20 17 14 19 24 17 21 30 37 35 29 30 25 33 38 39 39 42 42 46 44 49 55 53 49 51 51 53 57 59 59 61 62 61 62 61 61 61 61 62 62 64 64 65 65 66 68 71 71
23 23 22 21 18 16 16 17 17 15 14 15 16 18 30 19 22 19 19 21 20 27 47 41 34 43 34 40 39 44 38 38 42 45 46 50 55 57 53 51 49 54 56 60 62 63 64 64 64 62 61 62 61 61 62 62 63 64 65 65 67 70 70
24 19 21 17 17 16 21 19 17 17 15 16 16 21 36 21 21 17 18 17 21 32 48 42 39 34 30 31 32 38 41 45 43 44 48 51 57 58 54 55 55 56 54 58 62 63 64 64 62 63 63 62 61 62 62 62 62 63 65 66 66 68 68
21 20 18 17 18 19 29 31 27 27 16 17 18 19 29 20 31 28 20 19 31 35 40 40 41 39 42 40 36 32 36 44 42 44 46 54 56 58 59 60 58 55 58 61 62 64 65 64 62 65 65 62 61 62 62 62 62 63 64 65 66 67 67
30 31 34 30 32 29 25 27 28 28 29 30 23 23 26 20 35 27 27 28 25 25 25 37 35 38 37 36 39 40 41 40 43 51 52 52 57 58 55 60 60 63 63 62 62 64 63 61 62 62 62 62 61 64 64 62 62 63 65 66 67 67 67
29 25 26 23 26 26 27 27 27 29 30 32 30 21 22 45 27 19 28 37 29 26 29 41 45 42 44 45 47 44 45 47 44 46 55 54 50 52 57 58 59 61 64 64 64 65 63 62 63 62 62 62 63 64 64 63 62 63 64 66 68 68 69
21 22 22 23 26 27 28 28 28 28 29 30 30 33 32 38 21 20 32 42 37 31 22 22 36 46 48 39 43 43 43 39 46 51 47 44 43 49 51 60 62 62 61 64 64 63 64 62 62 62 62 63 65 66 64 65 62 63 66 67 68 68 69
21 21 20 23 26 26 24 24 24 24 24 25 26 28 29 29 34 32 29 41 37 28 23 21 21 41 38 39 45 43 42 34 53 47 50 43 43 43 48 55 58 62 63 63 65 65 65 63 64 62 63 64 63 63 63 63 64 64 66 68 69 68 68
21 19 20 25 24 23 22 22 23 24 24 25 25 26 28 32 31 29 27 31 31 34 40 36 29 34 43 41 34 31 44 46 43 47 45 46 47 46 50 54 56 60 62 63 64 65 66 65 64 64 63 63 63 60 61 62 64 64 65 69 68 68 68
19 19 19 19 20 20 22 24 24 25 25 26 27 29 29 31 33 33 30 30 29 32 36 32 37 40 41 37 42 45 47 41 46 48 47 51 58 57 55 54 53 56 58 61 62 62 61 61 63 63 65 63 62 61 61 62 62 63 64 66 66 69 69
18 18 18 18 20 21 20 21 22 23 24 26 27 29 30 29 28 29 30 30 30 32 38 34 35 29 35 39 37 44 46 52 44 47 49 49 50 54 59 59 59 53 50 54 62 59 58 60 60 61 63 61 64 63 64 64 65 63 63 64 67 69 70
19 17 16 19 21 18 20 30 31 36 35 40 40 35 35 32 27 26 28 28 34 36 38 34 35 33 37 39 47 48 49 52 56 49 50 49 48 51 54 56 57 59 59 56 54 57 61 60 58 59 61 61 64 63 64 66 65 67 67 66 68 69 72
16 19 21 20 18 19 34 30 36 42 45 46 47 48 46 44 42 37 29 28 32 37 36 37 41 41 39 49 53 48 54 59 56 59 57 61 60 60 62 63 61 62 63 63 61 59 56 55 59 60 60 61 63 63 64 64 67 69 69 68 70 70 71
19 18 17 16 18 26 23 27 45 49 47 45 49 45 44 47 48 50 46 40 32 34 38 38 40 43 50 55 63 63 62 64 63 60 59 60 62 62 64 66 68 69 67 65 60 60 59 58 57 58 59 59 59 60 61 63 66 68 69 70 69 71 71
16 17 14 15 25 19 18 23 44 46 43 47 46 40 45 50 55 55 55 56 57 55 46 35 35 49 48 48 53 61 62 64 64 63 63 64 65 65 66 66 66 68 69 69 67 64 60 57 57 57 57 58 59 60 61 62 69 68 69 70 70 71 71
20 13 13 16 15 16 20 44 46 47 49 51 51 49 46 53 54 55 56 56 57 59 59 57 46 51 43 39 39 56 60 63 63 64 64 64 65 65 65 67 67 69 69 69 68 64 60 59 57 59 58 60 63 65 64 64 66 67 69 68 69 70 70
21 17 11 11 13 18 34 46 44 47 49 51 52 47 41 53 53 54 55 56 57 58 58 58 53 43 33 35 39 56 62 63 63 63 64 64 64 65 66 67 67 67 69 69 67 64 62 58 61 64 64 64 65 66 67 66 68 69 68 68 69 69 70
25 23 16 11 15 15 36 44 45 47 52 51 48 35 33 52 53 54 55 56 56 57 59 59 56 47 36 33 45 61 63 63 64 65 65 65 66 66 67 67 68 70 70 69 66 62 62 68 67 67 66 66 66 67 68 66 64 65 67 68 70 70 70
24 26 23 22 23 30 30 40 48 51 52 49 37 35 48 53 54 55 55 56 57 58 58 59 55 53 57 61 62 63 63 63 63 64 64 64 65 66 66 67 69 70 70 70 69 68 70 72 66 67 68 66 67 69 69 68 66 65 68 70 71 72 72
23 23 21 22 25 35 43 47 44 51 42 36 31 49 54 54 54 55 55 56 57 57 58 59 58 59 61 62 62 62 62 62 63 63 63 64 64 65 67 68 69 69 68 69 69 69 70 69 68 67 68 69 70 70 68 68 69 68 70 70 71 72 72
27 27 25 24 23 33 45 50 46 49 35 41 53 54 55 54 55 54 55 56 57 56 57 59 61 60 60 60 61 61 62 62 63 63 63 64 64 65 66 67 68 68 68 67 67 68 68 68 69 67 65 69 69 69 70 72 71 70 70 70 72 72 72
25 25 24 23 30 47 46 50 45 50 52 54 55 54 53 54 54 55 54 55 56 56 57 58 59 59 60 60 61 61 62 62 63 63 64 65 65 65 65 66 67 67 68 68 67 68 68 68 69 70 72 71 71 71 71 72 73 71 70 71 73 72 72
36 32 34 40 42 43 43 47 52 53 54 56 55 55 54 54 54 55 54 55 55 56 57 58 59 59 60 60 61 62 62 62 63 64 64 65 65 65 65 65 67 67 67 67 67 67 67 68 68 69 70 70 70 69 70 71 73 73 72 72 72 72 71
40 38 37 39 38 39 43 42 52 54 54 54 55 54 54 54 54 54 54 55 55 56 58 58 59 59 60 60 61 62 63 63 64 64 65 66 66 66 66 66 66 66 66 67 67 67 67 68 68 68 69 69 68 69 70 71 72 74 73 72 72 72 73
34 30 46 42 40 45 47 49 53 55 56 55 56 56 56 55 55 55 55 56 57 57 58 59 59 59 60 61 61 62 62 63 63 64 65 65 66 66 66 66 66 66 67 66 66 66 66 67 67 68 68 68 69 69 70 71 72 73 73 73 72 72 72
35 33 36 38 41 43 44 44 48 50 53 55 56 57 56 56 56 55 56 57 57 58 57 58 59 60 60 60 61 62 62 63 63 64 64 65 66 66 67 67 67 67 67 67 66 66 66 67 67 67 68 68 69 69 70 71 72 72 71 72 72 72 72
32 36 37 37 37 37 38 39 44 50 54 56 56 56 56 55 56 56 56 57 57 57 57 58 58 60 60 60 60 61 61 62 62 63 64 65 65 66 66 67 67 67 67 66 66 66 65 67 67 67 68 68 69 70 70 70 71 70 71 71 71 71 72
34 35 36 43 38 39 47 50 50 51 55 57 56 57 57 56 56 56 56 56 56 57 58 58 58 58 58 59 60 61 61 61 62 63 64 64 65 66 66 67 67 67 67 67 66 65 66 67 67 67 67 67 68 68 69 71 71 72 72 72 72 72 72
32 36 41 43 45 47 46 47 47 47 52 57 56 56 57 57 57 57 57 56 57 57 57 58 57 58 58 58 58 59 60 61 62 63 64 64 65 65 66 66 66 67 67 66 66 66 66 67 66 66 67 66 67 67 68 70 70 70 71 70 70 70 70
37 38 38 39 40 40 42 45 47 49 54 56 56 56 57 57 58 58 58 58 57 58 58 58 58 58 58 58 58 58 59 60 61 62 63 64 65 65 66 66 66 66 66 66 67 67 68 68 67 67 66 66 67 66 68 68 68 69 69 69 69 68 68
39 40 41 42 43 45 45 46 45 47 50 54 56 56 57 58 58 58 58 58 58 57 57 58 58 57 57 57 58 59 60 61 61 61 62 63 63 64 65 65 65 66 66 67 67 67 68 68 67 67 67 67 68 68 69 68 69 69 69 69 68 67 67

ECMWFFLT2_sfc_dewp_024.txt.gz
Dewpoint
19 18 18 18 19 18 18 16 16 16 18 16 20 24 20 22 22 21 24 24 21 21 22 24 24 24 26 26 24 24 29 30 36 37 44 49 51 55 58 60 61 65 64 67 67 68 67 68 68 69 71 71 72 72 72 74 74 75 75 75 74 73 73
18 20 18 17 18 18 18 16 16 17 17 18 22 16 22 18 12 16 14 17 21 21 19 21 20 20 20 23 24 22 31 34 37 41 47 51 51 54 58 61 63 64 64 65 66 66 67 67 68 70 71 72 72 72 72 73 74 74 74 74 74 74 74
17 19 18 16 17 18 16 16 17 15 18 18 22 23 17 14 14 13 10 8 11 17 24 26 23 18 18 25 29 27 26 30 35 40 45 50 52 53 57 59 61 62 63 64 66 65 65 67 69 70 70 70 71 71 71 70 72 72 72 72 73 74 74
17 19 18 17 15 17 16 19 17 17 19 20 21 22 22 20 15 19 15 10 11 22 19 18 25 27 25 20 23 23 23 27 31 36 37 45 51 53 55 57 59 61 62 62 63 64 63 65 67 68 68 68 68 69 70 70 71 73 73 73 74 73 73
19 18 17 15 17 17 15 16 17 17 17 17 17 17 15 15 19 17 17 12 20 24 17 14 19 24 29 25 26 29 26 26 25 31 33 40 50 53 54 56 57 60 61 60 61 63 62 63 66 66 66 67 67 67 68 69 71 70 70 71 72 73 73
17 17 18 17 17 17 15 15 16 16 15 18 19 20 17 13 13 18 15 16 24 14 9 19 17 19 18 24 25 26 30 25 32 31 34 39 48 55 55 54 55 56 60 60 60 62 63 62 62 64 64 65 65 66 66 67 67 68 68 70 72 73 73
17 17 18 19 18 18 18 17 15 17 16 17 20 19 22 19 15 12 17 16 24 25 26 24 20 19 13 20 21 23 24 29 27 29 24 38 52 55 53 54 53 55 59 61 61 62 64 63 63 63 64 63 64 65 65 66 66 66 67 68 70 73 73
18 17 18 20 19 18 17 16 16 16 14 14 16 17 24 22 19 14 13 20 19 25 31 25 15 26 15 23 17 25 19 21 27 31 33 44 57 58 54 54 51 55 56 61 64 63 64 65 65 63 63 64 64 64 64 64 65 65 65 66 68 71 72
24 19 21 18 18 18 17 16 17 17 16 16 15 17 23 23 21 17 14 15 17 26 35 38 34 23 19 20 19 23 27 29 28 33 44 52 59 60 55 55 55 56 55 60 64 64 67 66 63 64 64 64 63 63 63 63 64 64 65 67 67 69 70
23 20 19 18 19 19 18 19 17 18 16 18 18 17 22 20 32 30 20 19 26 27 37 31 29 22 28 26 23 18 26 36 35 37 45 60 58 61 60 59 57 56 59 61 66 67 67 65 64 66 66 64 62 62 63 62 62 64 65 65 66 68 69
26 30 36 30 31 17 16 16 18 17 16 16 19 22 21 22 27 25 28 28 26 28 23 26 24 27 27 25 28 25 26 31 40 57 57 54 58 60 57 61 59 61 62 62 65 68 65 63 64 64 64 64 63 65 64 62 63 63 66 66 68 67 68
33 26 27 25 28 21 16 15 19 19 19 19 19 18 19 32 26 20 28 34 25 26 26 27 29 27 29 27 30 27 28 49 40 39 50 57 47 55 58 59 62 63 64 65 66 68 66 63 64 64 64 63 64 65 64 64 62 62 64 66 67 68 69
24 23 21 23 25 26 28 24 20 22 22 23 24 26 23 29 25 24 31 35 32 27 23 25 29 31 32 22 25 26 26 30 35 46 46 40 33 37 55 62 64 65 65 67 66 65 66 63 63 63 63 63 65 65 65 65 62 62 65 66 67 67 69
23 23 22 22 25 26 26 25 27 26 23 24 25 24 22 23 36 37 36 39 35 30 27 25 23 26 24 25 27 28 29 24 36 32 32 24 24 23 31 55 64 67 66 67 68 66 67 64 64 62 63 65 64 63 64 63 65 63 65 67 68 68 68
25 23 21 23 24 25 25 24 24 24 24 24 25 24 27 31 28 26 27 33 34 32 35 33 33 34 30 31 29 27 33 31 27 28 25 27 28 27 34 54 60 65 68 67 69 68 68 67 65 64 64 65 64 62 62 62 65 64 63 67 68 68 69
24 22 21 21 21 21 21 23 23 23 22 23 22 26 25 28 31 31 28 30 29 30 31 29 31 32 33 29 30 29 29 25 30 31 29 31 37 35 32 43 57 61 63 66 67 67 65 65 66 65 66 64 63 61 61 62 62 63 64 65 67 70 69
24 21 20 19 20 21 22 23 22 24 24 25 24 25 27 26 26 29 29 28 31 32 33 31 32 30 31 29 26 30 33 39 33 34 34 33 33 35 41 49 62 55 51 57 66 62 61 61 62 63 65 63 64 64 64 64 65 64 62 63 68 71 71
23 21 20 20 23 20 21 29 24 25 24 25 25 23 24 26 26 26 28 30 34 33 34 34 35 33 34 35 37 36 38 41 42 36 39 37 36 34 34 43 49 56 61 59 57 60 63 62 57 60 64 63 64 64 64 65 65 66 66 66 68 71 72
23 24 24 22 21 21 35 31 33 29 25 24 24 26 26 30 31 29 29 30 33 35 33 34 36 38 36 35 35 31 32 40 43 45 39 41 43 49 52 53 49 57 66 68 67 64 59 57 60 61 60 62 63 63 64 63 65 70 68 69 70 71 73
23 22 22 20 21 31 27 31 37 41 39 38 39 38 39 37 33 40 42 41 40 42 43 43 44 42 36 36 41 42 43 42 39 42 40 38 39 41 49 60 69 72 68 68 66 66 65 62 58 58 59 59 59 60 62 62 65 67 69 70 69 70 73
22 22 21 21 30 25 26 26 34 35 39 39 33 29 29 39 52 50 50 53 51 48 49 52 52 56 53 47 42 35 32 36 40 37 40 40 51 61 65 63 64 70 72 71 69 71 70 65 60 58 56 57 59 59 61 61 67 67 68 69 69 71 72
23 23 20 21 20 21 24 30 39 41 43 43 45 41 39 51 51 52 55 55 55 54 54 56 59 58 50 43 38 35 28 27 38 46 55 58 60 60 64 68 68 70 71 71 71 70 69 69 64 60 58 59 62 63 63 63 64 67 68 69 70 72 72
20 22 20 19 21 24 36 33 36 40 42 38 48 36 30 53 53 53 53 52 55 56 56 57 59 54 44 39 38 65 62 62 62 61 62 62 62 65 67 67 67 68 71 72 70 70 70 65 64 63 63 62 62 64 64 64 66 67 68 68 69 70 71
21 21 19 18 23 23 31 36 39 40 44 39 44 33 29 53 53 53 55 54 54 55 58 58 58 56 47 37 54 58 59 59 61 64 65 66 66 66 66 67 69 71 73 73 71 66 64 67 67 65 64 63 64 64 64 62 62 65 68 68 69 70 70
20 22 20 21 23 27 32 35 34 44 40 36 33 29 48 50 53 53 55 54 55 57 56 57 55 58 59 60 60 58 59 60 62 64 64 65 66 67 66 67 70 70 70 70 69 68 72 72 68 67 66 64 65 67 67 66 65 65 68 70 70 71 72
17 18 16 17 22 31 26 27 21 25 28 24 23 51 53 56 54 56 55 55 57 57 57 57 57 57 57 58 58 58 59 61 64 64 64 65 66 66 68 70 69 70 68 70 70 68 71 70 69 68 68 67 68 69 68 67 67 65 68 70 71 72 73
23 23 21 17 16 29 35 40 32 39 29 40 54 53 55 53 54 55 56 56 57 57 57 57 57 57 57 57 58 59 60 61 62 64 65 66 65 66 67 68 69 67 69 69 69 70 68 69 67 66 66 69 69 70 69 70 68 68 68 70 72 73 73
22 21 21 20 26 40 39 42 35 48 49 52 55 55 50 53 54 56 57 57 57 56 57 57 57 58 59 59 59 60 60 61 62 63 64 65 65 66 65 65 67 67 69 69 69 70 70 72 73 70 68 71 71 71 75 75 73 73 73 73 74 73 74
33 27 23 35 39 40 38 38 41 46 48 51 54 55 55 55 53 56 56 57 56 57 58 59 59 59 59 59 59 60 61 61 62 63 64 65 65 65 66 66 68 68 68 69 69 69 69 71 72 74 74 74 75 75 75 74 74 72 72 73 73 73 73
37 37 37 39 37 37 37 35 43 45 44 43 46 51 55 56 57 57 56 57 58 58 59 58 60 60 60 60 60 61 62 63 64 65 65 66 66 66 66 67 68 68 68 69 69 69 70 70 70 71 72 72 73 73 74 74 75 74 73 73 73 73 73
30 29 36 36 37 39 40 40 41 42 42 42 46 52 55 56 57 57 58 59 60 60 60 59 60 61 61 62 62 63 64 64 65 64 65 66 66 67 67 67 68 68 68 67 68 68 69 69 70 70 71 71 72 72 73 74 75 75 74 73 73 73 73
30 31 33 35 36 38 39 37 38 38 39 40 45 48 52 55 57 56 58 60 60 60 59 60 60 62 61 62 62 63 63 64 65 65 66 66 66 67 68 68 68 68 68 68 68 68 68 69 70 70 71 72 73 73 73 74 73 73 74 74 73 74 74
30 34 34 35 36 35 35 35 36 36 37 42 49 52 54 54 55 56 57 58 59 60 59 60 60 60 60 60 61 62 62 63 64 65 66 66 66 67 67 67 67 67 66 67 67 67 67 68 69 69 70 70 70 71 72 73 74 74 73 73 74 73 72
27 27 30 38 33 32 33 39 43 45 45 45 45 48 51 52 54 57 57 57 58 59 60 60 60 60 60 61 61 62 62 63 64 65 66 66 66 67 67 67 67 67 66 67 67 67 68 68 68 68 68 67 68 69 70 70 71 72 72 73 73 73 72
28 32 37 38 38 38 38 40 41 42 43 43 44 47 50 52 52 55 58 58 59 59 59 59 60 60 60 60 61 61 62 63 63 64 65 65 66 66 66 66 66 67 67 67 67 67 67 66 66 66 66 67 68 68 69 70 71 71 72 71 71 71 72
35 35 36 38 37 36 38 40 42 43 45 46 46 46 47 49 51 54 57 58 59 59 60 60 60 61 61 61 62 62 62 63 63 64 64 65 66 66 66 66 67 67 68 67 67 67 67 67 67 67 66 67 68 66 68 68 69 71 71 70 69 67 67
36 40 39 40 41 40 40 41 40 42 44 45 44 45 47 49 51 55 58 57 57 59 59 60 60 61 62 62 62 63 63 63 63 64 64 64 64 64 65 66 66 67 67 67 68 68 68 68 67 67 67 67 68 66 68 67 69 70 71 69 66 65 68

ECMWFFLT2_sfc_dewp_027.txt.gz
Dewpoint
19 21 20 17 17 18 18 16 15 16 16 14 21 26 18 17 17 18 20 20 18 20 21 21 25 23 22 23 24 25 31 32 38 36 42 45 42 45 49 51 59 63 64 66 66 67 67 68 68 68 70 71 72 73 74 75 76 76 76 76 76 75 75
17 20 19 16 16 19 17 14 14 15 16 15 21 18 26 22 19 20 14 16 20 20 20 25 24 23 21 23 23 22 33 34 33 33 41 42 37 41 46 54 61 62 64 66 66 66 66 67 68 69 71 71 72 72 73 75 75 76 76 76 74 74 75
17 18 18 14 14 18 15 13 13 11 15 16 21 23 19 19 19 19 19 16 19 23 25 21 23 22 21 25 28 25 25 27 29 30 34 43 43 42 45 52 59 62 62 64 67 66 66 68 70 70 70 70 70 72 73 73 74 74 74 73 73 74 74
16 18 17 14 11 15 16 16 12 11 15 17 19 22 24 25 22 19 16 15 15 22 23 22 24 25 26 23 26 24 22 25 26 30 29 34 40 43 43 44 52 61 62 63 64 65 65 66 68 68 68 69 69 70 72 72 73 74 75 74 74 74 74
16 17 17 12 11 12 14 14 15 13 12 14 15 16 17 18 22 20 20 12 16 17 10 13 26 28 27 24 26 29 26 27 27 31 31 34 40 42 43 44 48 58 62 61 63 64 64 65 67 68 67 68 68 68 69 70 72 72 72 72 73 75 74
15 15 16 14 11 12 12 12 15 14 13 15 16 17 14 12 15 19 16 19 25 14 14 18 18 26 24 24 26 28 28 24 34 35 36 40 43 45 44 45 50 58 62 62 62 64 64 64 65 67 67 67 67 67 68 69 69 70 70 71 73 75 74
17 16 17 17 13 12 12 11 12 15 14 16 17 17 19 15 12 9 17 17 25 25 24 24 20 20 19 24 23 25 24 27 28 32 31 38 44 44 42 45 46 50 59 62 62 64 65 65 66 66 67 66 66 67 67 68 67 69 68 70 71 74 74
19 18 16 17 15 12 12 12 12 13 14 13 15 17 23 20 16 12 13 22 20 23 30 24 17 25 16 25 22 27 22 23 26 31 34 40 43 46 42 44 42 49 56 62 65 65 66 66 67 66 67 67 67 66 66 66 66 67 67 67 69 73 73
21 18 19 16 15 13 12 12 13 13 14 16 15 18 26 26 20 14 13 15 16 27 30 28 23 15 12 16 18 21 24 30 27 30 35 44 54 53 48 51 53 54 55 62 67 66 70 69 64 66 67 66 66 67 66 65 66 66 67 67 68 71 72
21 20 19 19 18 14 12 15 14 14 12 17 18 18 25 21 33 30 18 17 25 31 34 28 22 21 25 19 17 17 25 32 26 31 44 52 54 58 54 53 53 54 61 66 70 70 71 66 64 68 69 66 65 65 66 65 65 65 66 66 66 69 71
24 31 40 26 22 17 14 14 16 13 12 13 19 21 21 20 27 29 30 27 30 31 27 28 22 25 26 23 24 24 27 33 40 47 46 45 54 58 55 58 57 62 66 66 68 69 65 63 64 64 64 65 64 67 67 65 64 65 67 67 68 68 70
38 33 32 24 26 18 16 14 14 14 14 15 17 17 18 33 24 19 31 36 29 26 27 27 26 26 30 28 31 29 34 36 36 35 43 54 51 55 57 59 60 62 64 65 68 69 66 63 64 64 63 63 65 66 65 65 64 64 65 67 68 69 71
31 32 26 25 23 21 22 15 14 15 15 15 16 22 19 28 23 22 34 38 34 29 24 25 27 32 32 23 26 29 32 30 35 42 37 34 33 48 53 60 64 64 63 66 67 67 66 64 64 64 63 64 66 67 66 67 63 63 66 67 68 68 70
31 30 29 26 23 24 24 20 14 15 14 15 15 16 17 19 32 29 31 35 28 27 25 25 26 29 26 28 31 32 32 26 39 36 35 26 26 28 46 58 62 65 66 67 68 69 70 67 67 63 64 66 64 64 64 63 66 63 66 68 70 69 69
30 28 26 26 24 25 26 24 24 16 16 15 16 14 16 22 22 23 26 36 31 26 33 31 33 37 33 34 30 28 35 32 28 31 28 30 31 30 35 53 61 65 65 66 69 70 71 70 67 66 66 66 64 62 63 62 65 64 63 69 68 68 70
28 27 25 25 25 24 24 25 25 21 13 17 17 19 18 22 27 29 27 37 35 34 35 35 36 36 37 35 35 34 33 27 31 33 31 34 38 37 35 38 41 65 62 64 68 68 67 68 68 66 68 65 64 62 62 62 62 62 63 65 66 71 70
28 26 25 23 24 25 24 24 23 24 26 24 20 21 24 24 25 28 31 33 36 38 39 35 35 30 31 31 30 34 35 39 36 38 38 36 35 38 43 42 43 36 47 63 67 62 61 62 64 64 65 63 66 65 65 64 65 63 62 62 67 72 71
27 24 23 24 25 23 24 27 23 26 25 25 24 23 24 26 25 27 31 33 35 33 33 32 34 32 35 38 40 39 41 40 41 36 38 38 39 39 38 40 40 45 48 48 53 52 58 59 51 58 65 62 64 64 63 65 64 67 67 65 67 70 73
24 25 25 24 21 22 31 28 27 24 23 23 24 25 21 21 24 24 25 27 31 34 33 35 37 39 38 38 37 34 32 40 39 40 38 43 43 44 44 45 50 67 67 66 63 63 58 50 53 57 55 61 63 62 64 63 66 72 71 71 72 72 73
27 25 24 21 22 29 23 23 27 30 26 24 24 22 22 24 23 26 26 27 28 33 34 35 39 42 40 39 45 44 39 35 33 30 32 35 34 35 39 54 62 63 62 65 61 61 66 62 55 53 53 53 58 61 61 63 64 68 71 72 70 72 73
26 26 24 23 34 30 30 31 33 33 32 28 27 26 27 27 27 28 31 33 32 34 37 39 41 45 46 49 48 40 32 31 28 26 26 25 31 42 54 54 58 67 68 66 66 69 67 65 58 54 51 51 53 58 61 62 68 66 68 71 70 73 73
26 26 23 24 24 25 28 33 31 33 31 31 32 35 32 34 32 35 39 45 47 46 43 42 46 54 49 41 35 32 35 49 53 58 60 59 58 58 62 65 64 66 67 70 70 70 69 69 66 63 59 57 61 65 64 63 63 65 66 67 69 71 70
25 24 22 22 24 26 32 30 28 34 38 34 38 37 30 39 37 43 44 41 42 42 43 44 56 51 40 32 36 61 58 56 58 59 62 60 61 62 62 62 62 66 70 72 70 69 68 63 67 69 68 65 62 65 66 65 66 66 66 67 68 68 69
25 24 22 22 26 27 30 29 30 33 36 35 37 31 30 47 45 46 45 42 45 49 55 57 55 48 36 31 44 57 57 56 58 62 64 63 63 61 60 60 68 70 70 72 72 69 67 71 70 69 68 67 66 65 65 63 62 64 67 68 69 70 70
24 26 22 23 26 32 30 36 35 36 35 35 34 27 46 53 50 51 49 48 48 53 53 54 50 53 53 53 57 55 55 55 58 61 62 63 63 63 63 66 70 68 68 70 70 68 71 73 72 71 70 66 66 68 67 67 65 64 67 69 71 72 73
21 21 20 21 24 30 27 37 38 37 33 31 31 50 53 56 54 52 51 51 53 55 56 56 56 55 54 55 55 56 57 58 60 60 61 62 63 62 66 69 70 69 67 71 71 69 72 70 70 69 70 70 69 69 67 66 67 66 69 71 71 73 73
20 23 23 20 22 39 35 33 30 35 33 47 51 51 52 50 51 49 51 51 54 56 56 56 57 57 56 57 58 58 59 60 60 61 62 63 63 64 66 67 68 66 68 70 69 70 69 71 72 72 67 70 70 69 69 70 68 69 68 70 72 73 73
14 16 19 21 25 38 36 37 32 44 47 47 48 48 50 51 53 55 55 52 54 56 57 57 57 57 57 58 59 60 60 60 61 62 63 65 66 65 64 65 67 66 69 71 71 71 70 72 73 74 73 70 71 71 71 72 71 70 70 71 74 73 73
34 22 19 40 40 39 37 38 38 41 43 45 45 45 49 52 53 56 57 56 57 57 57 58 58 57 57 58 58 59 59 60 60 62 63 64 65 64 65 65 67 68 68 69 69 70 70 72 73 74 75 73 72 74 76 76 75 74 71 71 72 73 73
36 36 36 38 38 39 40 35 39 40 40 40 41 42 45 50 51 53 55 57 57 58 59 57 58 59 60 59 58 59 60 60 62 64 64 65 65 66 66 66 68 68 66 68 68 69 69 71 71 72 73 73 74 74 74 75 76 74 74 75 75 75 76
30 28 35 35 37 38 38 38 39 40 40 41 41 43 45 49 51 53 54 56 57 59 60 59 60 60 61 61 61 63 63 64 64 63 65 65 66 67 67 68 68 69 69 68 69 69 69 69 70 70 71 71 72 73 74 74 75 76 75 74 74 74 75
28 30 34 34 35 37 37 36 37 38 38 39 44 46 48 49 50 51 53 55 56 58 58 60 59 59 60 61 62 62 63 64 64 65 65 66 66 67 67 68 68 69 68 68 69 69 69 70 71 71 72 72 72 72 73 74 74 75 74 74 74 74 74
27 32 32 32 33 34 35 34 37 37 39 45 46 46 46 45 45 48 52 53 54 56 57 59 60 60 61 61 62 62 63 63 64 65 66 66 66 67 67 68 68 68 68 68 68 68 69 70 70 70 71 72 72 72 73 73 74 73 74 74 75 74 74
26 26 29 33 28 27 29 32 34 38 44 44 45 45 45 46 47 47 47 49 52 52 55 60 61 61 62 62 63 62 62 64 64 66 67 66 67 67 66 66 67 66 67 67 68 68 68 69 69 69 69 70 70 70 71 72 74 74 74 74 73 73 73
25 29 31 34 34 35 37 39 39 40 42 43 43 45 45 46 46 46 47 49 52 52 53 56 60 62 62 63 63 63 63 64 64 65 66 66 66 66 66 66 66 67 67 67 66 66 66 65 65 66 68 68 69 68 70 71 71 72 72 73 73 72 74
33 32 32 34 34 35 37 38 40 41 42 42 42 44 44 45 46 46 46 48 51 53 53 55 58 62 63 63 63 63 63 64 65 65 65 66 66 66 67 68 68 68 67 67 67 67 68 68 67 68 65 66 66 65 67 68 69 71 70 70 69 68 69
34 36 35 36 36 37 37 40 40 41 42 44 42 43 43 45 46 47 47 47 50 52 53 55 58 61 63 63 64 65 64 64 64 65 65 65 66 66 65 66 67 67 68 68 68 68 68 67 68 67 66 66 66 65 68 67 69 70 70 68 66 67 68

ECMWFFLT2_sfc_dewp_030.txt.gz
Dewpoint
20 19 19 20 17 14 13 10 9 9 12 14 19 21 11 11 12 14 17 13 10 10 11 14 16 15 19 21 21 24 28 40 50 47 44 39 42 56 56 57 59 62 61 65 67 66 66 68 67 68 70 71 71 72 73 74 75 74 74 75 74 75 75
19 19 20 20 18 15 12 9 8 9 11 12 18 15 22 14 10 13 8 9 12 10 12 17 16 16 15 18 19 20 29 32 37 45 48 45 41 43 54 57 60 60 61 63 65 65 65 67 67 68 71 71 72 72 72 73 74 75 74 74 73 74 75
18 21 21 20 19 17 14 11 10 8 13 15 20 20 17 17 16 16 15 11 12 15 19 15 15 16 19 23 26 22 22 27 32 46 45 46 42 42 54 57 59 58 59 62 65 60 64 68 70 69 70 69 70 71 71 72 73 74 74 72 73 74 75
17 21 22 20 17 17 17 16 12 11 14 16 18 19 23 26 23 21 19 17 16 17 18 17 18 21 25 20 23 21 20 25 29 38 44 48 44 43 52 52 53 54 57 57 61 64 65 66 68 67 67 67 68 70 73 73 73 74 74 74 74 74 74
16 18 21 19 18 15 15 15 16 13 13 14 14 14 16 20 24 23 21 15 21 23 17 19 22 24 27 24 27 32 24 25 26 42 45 44 42 44 51 52 52 51 52 56 61 65 65 63 67 67 66 67 67 68 71 73 74 74 74 73 73 74 75
16 16 19 19 17 15 13 14 16 15 13 14 14 15 12 12 17 23 20 18 26 15 14 21 22 25 24 25 27 28 25 22 34 36 42 46 46 48 48 48 47 51 59 59 57 60 66 63 66 66 66 66 66 68 70 72 72 73 73 73 74 75 75
14 15 17 19 18 15 12 12 14 14 13 13 14 16 17 12 11 14 20 18 28 24 24 26 23 24 22 24 23 25 23 26 27 33 31 49 49 45 41 44 45 47 53 53 57 61 61 62 64 67 67 66 67 68 69 71 71 72 73 73 73 75 75
27 15 16 18 18 15 11 11 13 13 11 10 11 14 20 17 14 12 13 21 21 23 50 38 20 36 22 27 23 30 24 24 29 33 32 45 47 47 42 50 47 56 57 60 62 62 63 63 67 67 67 67 67 67 68 69 70 71 72 72 72 73 74
29 15 18 16 17 16 12 10 12 13 13 12 11 14 22 21 15 11 12 13 21 24 34 31 24 20 20 20 20 23 25 31 27 34 39 50 52 52 47 53 58 59 60 61 63 63 66 69 66 68 68 68 66 67 68 69 69 71 72 72 72 72 72
24 17 16 18 18 17 14 11 10 12 11 15 15 15 25 21 34 30 16 15 26 26 38 27 24 21 33 24 20 21 26 35 30 51 55 56 52 52 52 53 58 57 60 62 64 65 69 69 66 70 70 67 67 67 67 67 68 70 70 70 71 72 72
29 24 33 21 21 17 14 10 10 10 10 11 17 21 23 19 30 25 31 29 30 30 24 26 16 19 23 21 27 25 36 40 44 55 56 58 60 56 54 58 61 63 65 65 64 67 69 66 66 67 68 67 67 69 69 67 67 68 70 70 71 70 72
31 33 34 28 27 17 16 13 9 10 10 12 15 16 17 41 27 21 33 49 28 27 26 23 28 23 33 24 30 40 43 42 42 52 60 58 49 54 58 60 60 63 64 70 71 69 68 66 66 66 66 67 68 70 68 68 66 66 67 70 70 71 73
27 28 27 29 29 25 20 14 11 10 11 12 14 21 18 31 26 26 40 45 35 28 20 20 26 34 31 18 27 32 33 33 45 51 42 43 45 51 53 65 67 63 61 67 72 71 70 66 66 66 65 67 69 70 69 69 66 66 68 69 70 70 72
25 26 26 27 28 27 26 21 12 11 10 11 12 14 16 19 38 34 30 39 28 24 19 19 22 29 30 32 34 36 36 34 55 39 43 35 36 40 49 58 60 71 70 75 73 73 72 68 69 64 66 69 68 68 67 67 69 67 69 70 71 69 70
27 26 27 27 28 28 26 24 14 11 10 11 11 11 15 21 22 20 22 39 37 26 34 27 33 40 30 33 31 30 40 33 30 33 28 32 37 43 52 65 59 68 69 71 74 74 74 72 70 68 68 68 67 65 65 65 69 68 67 71 70 69 70
29 28 26 24 27 27 26 25 25 19 12 13 12 14 14 19 27 27 24 36 30 31 37 36 35 36 38 35 36 35 35 27 38 33 30 37 49 46 50 59 63 66 66 70 70 71 69 68 71 69 71 68 65 64 65 65 65 66 66 69 70 72 71
29 29 26 26 27 27 26 26 22 20 25 19 14 15 17 17 18 23 27 28 33 39 40 32 34 31 33 33 31 34 37 51 37 40 38 36 35 38 53 56 65 59 61 67 69 66 66 66 65 65 69 65 67 67 67 67 67 64 64 64 71 73 72
28 27 28 26 27 25 26 29 25 26 25 21 16 14 14 16 16 19 27 31 39 38 36 35 37 34 37 41 47 43 48 47 52 35 39 34 34 37 39 41 42 60 67 65 67 64 68 68 62 63 66 65 68 66 65 69 67 68 68 67 69 73 73
27 27 27 27 24 25 31 28 27 25 24 25 25 27 14 15 17 19 24 33 35 38 36 36 38 42 38 35 37 33 35 47 43 44 36 42 44 43 50 56 51 67 69 69 69 65 53 52 61 65 64 62 66 65 66 66 69 72 72 70 71 75 73
28 28 27 25 26 31 26 27 28 28 22 23 25 23 20 20 20 30 29 34 35 39 35 34 39 42 36 36 42 43 38 36 37 32 31 31 33 38 44 67 70 70 64 65 57 69 69 60 56 52 53 60 61 61 61 64 67 71 73 72 71 75 74
27 27 24 25 32 27 25 26 28 24 27 26 27 26 27 27 28 29 32 34 31 30 32 34 37 40 39 42 47 43 40 37 32 29 35 61 60 61 62 61 64 70 70 69 70 72 68 66 61 55 52 48 53 59 61 61 69 69 71 73 71 73 75
28 28 25 25 24 25 27 31 28 26 25 28 29 31 28 33 25 26 31 32 32 29 28 32 42 47 48 46 45 38 46 55 58 61 61 61 60 59 59 65 67 71 70 68 66 65 64 62 61 63 62 63 69 77 66 66 67 67 69 71 72 73 74
26 26 25 23 23 25 32 30 27 27 31 30 29 29 26 49 53 33 29 28 45 45 42 42 44 49 45 44 49 56 55 55 58 60 60 61 61 60 61 67 66 65 68 68 69 71 71 70 72 70 69 71 72 72 75 69 67 68 68 69 71 72 73
26 26 25 24 29 30 34 32 26 28 31 32 32 27 31 52 52 49 48 35 42 42 47 52 52 49 45 40 53 54 55 55 58 60 59 61 62 61 60 65 65 68 71 70 71 67 69 72 72 73 72 73 72 74 74 66 63 67 69 70 72 72 73
25 28 24 25 30 37 36 35 34 30 30 31 28 28 50 53 52 50 50 48 51 52 53 52 49 52 54 55 55 55 56 57 58 59 59 60 61 61 60 63 71 68 67 70 70 69 72 74 71 71 72 70 73 75 75 73 70 66 70 72 74 74 74
21 23 22 23 33 40 36 38 40 45 38 31 30 51 53 53 52 54 53 51 55 55 55 55 55 55 54 55 55 58 57 58 60 60 60 61 62 63 64 67 68 67 66 69 69 68 70 70 71 73 75 73 75 76 74 72 73 70 77 74 75 75 76
20 24 24 24 26 42 37 42 44 45 44 48 50 49 52 51 52 53 54 56 56 56 55 55 56 55 54 57 57 58 59 59 59 61 62 64 64 64 64 65 66 65 67 68 69 70 70 70 70 72 74 76 74 74 74 73 74 77 77 78 76 76 77
19 19 22 27 39 40 37 39 40 42 44 44 45 46 49 50 51 52 54 55 56 56 56 54 55 55 57 57 57 58 59 60 60 62 63 64 64 63 63 63 65 65 67 70 69 70 70 71 72 73 75 76 72 71 72 77 75 76 77 77 78 77 76
31 25 30 37 39 38 37 38 38 39 40 40 41 44 47 47 49 52 53 54 54 56 57 57 55 55 57 57 57 58 59 60 61 62 63 63 64 64 64 64 67 67 67 68 68 68 69 70 72 73 74 75 76 76 76 78 78 78 77 74 79 77 76
35 33 35 39 37 38 37 36 38 39 38 37 38 43 49 49 48 48 50 53 54 55 57 57 58 57 57 58 58 59 60 60 62 64 63 64 65 65 65 67 67 67 67 68 68 68 69 70 71 72 73 73 75 75 75 76 77 77 78 77 78 78 78
28 27 33 34 35 36 37 35 36 39 40 39 40 45 46 46 46 46 48 49 51 54 55 56 57 59 59 59 60 60 61 62 62 62 64 65 66 66 66 67 68 68 68 67 68 68 70 70 71 70 72 73 73 73 74 74 75 76 76 76 77 78 79
28 30 33 33 33 35 36 33 34 35 37 38 44 46 45 45 46 47 48 48 48 50 52 54 55 57 58 60 60 60 61 62 63 64 64 66 66 67 68 68 68 68 68 68 68 69 69 70 71 71 72 73 73 74 73 73 74 74 74 74 76 75 75
29 30 31 31 31 31 32 33 35 35 36 40 44 44 43 43 43 44 45 46 47 48 49 52 54 55 57 59 61 61 60 61 63 64 64 66 67 67 67 68 67 67 67 68 68 68 68 69 70 70 71 71 71 72 73 73 74 75 75 74 76 74 73
27 26 28 31 27 27 29 32 33 36 41 41 40 41 42 43 44 44 44 44 46 47 48 49 51 55 57 58 60 62 62 63 64 64 65 66 67 67 67 66 66 66 66 67 67 68 68 70 69 69 70 70 70 71 72 74 74 75 75 75 75 75 75
25 29 32 36 35 34 33 34 34 35 38 40 41 41 42 43 44 44 44 45 46 47 47 47 49 53 55 57 58 60 61 63 64 65 65 66 67 67 66 65 66 66 66 66 66 66 68 69 69 70 69 69 71 68 72 73 73 76 76 75 75 74 75
31 32 33 35 35 35 37 36 35 36 38 39 39 41 42 42 43 43 43 44 45 47 47 47 49 51 53 55 56 59 62 64 64 65 65 65 66 66 67 68 67 66 66 66 66 66 67 68 67 69 64 65 69 64 71 71 71 72 73 75 75 73 72
31 34 34 36 37 36 36 38 40 38 39 40 40 41 41 42 43 43 43 44 45 46 46 46 48 50 51 52 56 59 62 63 64 65 66 66 66 66 66 67 68 68 68 68 68 68 68 68 68 67 66 66 67 66 69 68 70 71 71 71 67 68 71

ECMWFFLT2_sfc_dewp_033.txt.gz
Dewpoint
19 18 19 19 18 15 17 16 14 15 16 12 30 33 23 25 27 17 29 16 10 12 15 16 17 17 18 23 24 33 40 49 49 49 51 53 54 56 57 58 61 62 62 62 62 63 65 67 67 67 67 67 68 69 69 69 70 70 71 71 71 71 71
20 20 19 19 19 17 15 14 15 18 15 11 28 21 25 18 16 19 14 13 11 9 11 14 17 15 16 19 22 22 38 44 47 48 51 52 53 55 57 58 60 62 63 63 62 63 64 66 66 67 68 68 68 69 69 70 70 70 71 71 71 71 71
19 20 20 18 19 19 15 15 16 13 12 10 23 27 22 16 15 15 14 11 16 12 16 12 11 16 16 19 22 21 32 39 44 47 52 52 53 55 56 57 58 61 63 63 63 63 64 65 67 67 68 68 69 69 70 70 70 70 71 71 71 71 71
18 18 19 18 18 19 19 16 13 14 15 16 21 18 24 23 26 17 15 12 12 18 13 12 11 14 17 17 21 21 23 41 43 45 49 51 53 54 55 56 57 59 61 63 63 62 63 64 66 67 67 68 68 69 70 70 70 71 71 71 72 71 71
17 16 19 18 18 17 17 15 12 11 13 17 18 22 14 24 27 23 21 21 23 30 18 13 12 15 18 18 28 24 22 44 45 45 44 51 53 53 55 56 57 58 59 61 62 63 63 64 65 66 67 68 68 69 70 71 71 70 71 71 71 72 72
15 16 19 19 18 18 17 16 12 10 8 13 9 14 14 12 18 21 25 21 32 27 21 14 14 17 19 20 26 33 22 44 46 46 43 49 52 52 54 56 57 58 58 60 62 63 63 65 66 66 67 67 68 68 69 71 71 71 71 71 71 72 72
16 16 19 20 19 19 18 17 15 10 9 13 15 16 17 13 13 15 23 26 29 38 31 22 18 20 21 22 24 34 27 24 46 46 44 44 51 52 53 55 56 57 58 59 61 62 63 63 65 67 67 67 67 68 69 70 71 71 71 71 71 72 72
23 19 19 20 21 20 18 17 16 14 9 9 16 21 28 15 21 15 19 28 29 31 33 34 27 24 22 25 23 29 27 23 46 45 43 43 48 52 53 53 55 57 58 59 61 62 63 63 63 66 67 67 67 68 68 69 70 71 71 71 71 71 72
24 23 32 20 21 21 19 16 16 16 15 12 14 20 32 20 18 17 18 22 25 36 42 27 27 25 23 24 24 32 26 32 46 45 44 44 49 53 52 54 55 56 57 59 61 62 63 63 64 66 67 67 67 67 68 69 70 71 71 72 72 71 71
23 24 24 20 20 20 19 17 16 16 15 14 14 14 30 19 34 25 21 23 33 33 40 34 31 32 29 23 23 28 26 34 45 45 45 44 46 53 53 54 54 54 56 59 62 63 65 64 64 66 67 67 67 66 67 69 71 71 72 72 72 71 71
36 40 42 30 24 20 18 16 15 14 14 14 15 22 30 22 35 25 30 35 32 33 29 26 29 32 30 39 43 45 50 54 51 44 46 44 46 52 52 53 53 55 57 58 61 63 64 64 62 64 66 67 66 67 67 68 70 72 72 72 72 72 71
37 35 38 26 22 18 18 16 14 12 12 13 16 15 20 38 29 21 34 39 32 33 34 36 35 32 41 43 45 49 51 52 52 43 47 55 46 49 50 51 54 56 58 59 61 62 63 63 62 62 65 66 67 67 67 67 69 71 72 73 72 72 72
31 30 31 32 28 21 17 17 15 11 11 12 12 22 25 37 30 26 38 38 39 33 29 30 31 36 40 40 41 42 45 49 51 49 46 45 47 52 49 52 54 56 57 59 61 61 62 61 61 62 64 67 67 67 67 68 68 70 71 72 72 72 72
31 33 31 28 27 28 28 18 16 14 11 11 12 18 18 33 37 39 42 41 37 27 30 34 38 35 34 36 39 41 44 46 48 47 46 50 53 52 53 55 56 58 59 61 62 62 62 62 62 64 66 67 67 67 67 67 68 68 70 71 72 72 72
38 35 35 34 28 34 33 29 25 26 14 11 11 12 15 30 29 31 40 45 39 38 32 33 35 34 34 36 37 40 44 43 44 45 47 50 52 54 55 57 57 59 61 62 62 63 63 64 65 66 67 68 67 67 67 67 67 68 69 71 71 71 72
44 40 37 29 27 27 27 29 32 32 26 15 10 13 14 25 33 33 35 35 34 38 36 35 35 34 33 34 38 40 37 35 38 42 47 49 52 55 58 62 63 63 64 67 65 63 64 66 66 66 67 68 67 67 67 67 67 67 67 69 70 71 71
32 36 29 28 28 28 28 32 30 31 33 28 12 12 18 22 30 32 35 35 36 37 38 32 35 39 41 42 39 35 38 39 35 35 39 52 59 62 65 66 67 67 69 70 70 68 66 67 67 66 67 67 68 68 68 68 68 68 67 67 69 70 71
29 28 33 32 31 28 30 38 33 39 26 25 32 10 11 20 28 29 37 41 43 37 35 36 36 34 36 40 45 43 41 40 44 45 44 43 48 59 62 63 63 64 67 68 69 68 68 68 68 68 68 67 68 67 67 68 67 68 67 67 68 70 70
28 29 36 34 29 28 40 35 35 29 28 27 28 41 40 20 23 34 36 38 38 39 39 41 42 42 43 42 38 45 50 46 46 58 60 62 62 61 64 63 63 65 66 67 67 66 67 66 67 66 66 67 68 67 67 68 67 68 68 68 68 70 70
30 37 39 28 27 38 39 30 29 33 30 29 34 41 47 50 51 48 36 35 40 43 42 43 44 43 44 47 55 59 60 60 59 58 58 61 66 68 69 70 70 70 69 69 70 70 69 66 62 63 65 65 65 65 65 66 68 68 68 68 68 71 70
28 28 30 31 40 32 36 33 36 37 36 34 38 41 45 50 52 52 50 43 36 37 38 40 44 45 50 54 55 57 59 59 60 60 60 62 66 66 66 66 67 68 67 67 69 68 66 64 62 62 62 61 64 64 64 64 67 69 69 69 68 70 72
29 28 30 32 32 31 35 39 38 42 40 36 37 46 46 51 53 54 53 45 43 41 41 42 46 52 54 53 54 56 57 58 58 60 60 60 63 65 64 64 65 67 68 68 70 71 70 71 71 71 70 68 68 73 72 64 64 66 68 69 69 70 72
26 31 35 30 31 38 38 37 39 44 44 42 42 46 46 50 52 55 54 54 51 47 48 50 50 52 52 53 55 56 57 58 59 60 60 60 60 62 63 64 66 67 70 72 71 71 70 70 71 71 72 72 73 72 73 73 66 64 66 67 70 70 72
29 29 30 33 34 34 37 38 42 44 45 41 40 39 45 50 51 54 55 54 54 55 54 53 53 52 52 54 56 57 58 59 60 61 62 62 62 61 61 66 67 69 71 70 70 69 69 70 73 73 74 73 72 74 75 73 71 66 65 66 69 70 72
24 28 28 34 38 40 38 39 43 42 45 40 41 41 49 51 52 54 54 55 55 54 54 54 54 55 56 56 58 59 59 60 61 62 63 63 63 63 63 68 70 67 68 70 69 67 70 72 71 71 73 75 74 73 74 73 72 72 68 68 70 71 72
23 24 31 25 38 39 41 43 44 44 45 44 44 51 54 51 52 53 53 53 55 56 54 54 55 56 56 58 59 59 60 60 62 62 63 63 63 63 66 71 68 66 68 69 68 70 71 71 71 71 72 74 76 75 73 72 73 72 74 70 70 71 72
28 29 26 28 31 39 38 40 43 41 45 49 52 51 49 48 49 51 52 53 54 55 56 56 56 56 57 57 59 59 60 60 61 62 63 63 64 64 64 65 67 66 68 69 69 70 70 70 70 71 73 74 74 75 73 75 77 77 76 74 72 72 72
27 27 28 36 45 39 38 40 41 42 42 55 52 53 48 47 46 48 50 49 52 54 55 56 57 58 57 57 58 59 59 60 61 62 62 64 64 64 64 66 67 68 67 71 70 69 70 72 72 72 73 73 77 75 74 76 77 77 76 76 74 73 72
35 34 36 38 40 39 40 40 43 44 42 42 48 49 47 46 46 47 48 48 48 51 54 54 56 56 57 59 59 59 59 60 61 62 63 63 64 65 65 67 68 68 67 70 68 69 70 71 71 73 74 73 74 74 74 75 76 76 76 76 75 74 73
39 36 34 38 43 37 35 33 45 47 43 44 46 47 48 48 46 47 47 47 48 49 53 53 54 55 56 58 59 60 60 61 62 63 64 65 66 66 67 67 68 68 68 68 69 69 70 70 70 72 73 73 72 72 75 75 75 75 76 76 76 75 75
28 29 40 39 32 33 35 37 39 41 49 46 47 47 47 48 47 47 46 47 48 48 50 50 53 54 56 57 58 59 61 62 62 63 64 64 65 66 67 69 69 69 69 68 69 70 70 69 70 71 71 73 73 74 74 74 75 75 75 77 76 76 76
31 31 33 33 35 37 37 36 42 38 43 46 49 46 47 52 54 46 45 46 47 48 47 48 49 50 55 56 57 58 59 61 63 64 63 64 65 66 67 69 69 68 68 68 69 69 68 69 70 71 72 71 72 73 73 73 74 74 76 75 75 75 76
30 32 33 36 36 37 39 39 39 41 42 43 43 43 44 43 44 46 46 46 46 48 48 48 48 49 54 54 56 56 58 59 62 64 64 65 65 66 67 68 68 67 67 68 68 68 68 69 70 70 70 70 72 75 74 73 74 74 75 78 76 74 75
27 29 32 36 32 31 32 34 38 37 38 42 41 43 43 44 44 49 47 45 45 47 48 48 48 50 52 53 54 55 57 59 61 64 65 65 65 66 67 68 68 66 67 67 67 66 67 68 69 68 70 71 72 71 72 73 73 75 73 73 75 74 75
35 37 39 40 39 38 36 37 37 38 41 41 40 44 45 44 45 45 50 46 44 46 47 49 48 48 51 52 52 52 54 58 60 62 65 65 64 65 66 67 67 66 66 67 67 67 68 68 69 69 71 70 69 70 71 71 71 72 72 75 74 73 73
38 39 39 40 40 40 40 41 40 38 40 40 40 41 44 46 45 45 46 48 46 46 49 49 50 50 49 50 51 52 55 58 60 61 63 65 65 66 66 68 68 68 67 67 67 68 68 68 67 67 66 67 69 68 70 70 70 71 71 74 72 71 72
38 40 40 41 41 41 41 41 41 41 41 43 41 40 43 45 45 46 44 46 49 50 49 49 49 49 48 49 50 53 55 58 61 63 63 65 66 66 66 67 68 68 68 68 68 67 67 67 67 67 66 66 67 69 69 69 69 70 71 71 70 70 71

ECMWFFLT2_sfc_dewp_036.txt.gz
Dewpoint
22 22 22 21 22 20 21 21 20 21 21 19 24 33 28 24 22 12 30 24 19 16 15 10 20 26 27 34 42 47 47 48 50 52 54 55 57 58 59 60 61 61 61 61 62 63 63 63 64 64 65 65 66 66 67 67 68 68 68 69 69 69 69
22 22 22 21 21 22 22 20 21 18 21 21 20 17 23 19 15 19 18 11 17 12 15 21 12 16 18 27 35 48 49 50 51 53 54 56 57 59 60 60 61 61 61 61 61 62 63 63 64 64 65 65 66 67 66 67 68 68 68 69 69 69 69
20 21 21 20 20 21 21 21 18 19 16 17 24 25 17 13 15 19 19 15 19 17 17 19 10 10 11 19 31 48 50 50 52 53 54 56 58 59 60 60 61 61 61 61 61 62 63 64 64 65 65 66 66 67 67 67 68 68 68 68 69 70 69
21 20 20 18 18 19 21 19 20 21 18 20 18 18 26 16 20 15 14 19 18 24 14 11 10 11 10 11 25 47 50 51 52 53 54 56 58 59 59 60 60 61 61 61 61 62 62 63 64 65 66 66 66 67 68 67 68 68 68 68 69 69 70
21 20 20 18 18 17 17 17 18 19 22 20 19 23 15 22 24 15 15 14 22 22 17 13 12 12 12 11 16 46 50 52 52 53 54 56 57 58 59 60 60 61 61 61 62 62 62 64 65 65 66 66 66 67 67 67 67 68 68 68 69 69 70
22 19 21 20 19 18 17 16 17 18 16 15 14 15 27 19 19 21 17 12 26 23 18 17 14 13 11 11 13 40 50 52 52 53 54 55 56 58 59 59 60 61 61 62 62 62 63 64 65 65 66 66 66 67 67 68 68 68 68 69 69 69 70
24 21 20 21 20 19 18 16 15 17 16 14 14 17 16 12 13 34 30 21 23 34 31 20 17 15 11 10 12 28 49 51 52 52 54 55 56 57 58 59 60 61 61 62 62 62 62 64 65 65 66 66 66 67 67 68 68 68 68 69 69 70 70
30 27 24 22 21 19 18 18 16 15 15 12 12 15 23 14 21 15 17 22 20 24 37 28 18 17 13 12 13 21 48 50 50 50 52 54 55 56 57 58 59 61 62 62 62 62 63 64 65 65 66 66 66 67 67 68 68 68 68 69 69 70 70
25 23 26 22 21 20 18 18 17 14 15 14 17 20 28 15 15 17 16 15 13 33 38 36 35 28 18 12 19 24 45 48 48 49 51 53 54 55 56 57 58 60 61 62 62 62 63 64 64 66 66 66 66 67 67 68 68 68 69 69 69 70 70
22 21 20 25 24 18 18 19 18 15 13 13 16 12 24 16 28 25 20 19 22 31 31 29 27 25 19 15 25 28 42 47 47 48 50 52 53 55 55 56 57 58 61 62 63 63 63 63 64 65 66 66 66 67 67 68 68 69 69 69 69 70 70
30 32 35 36 36 32 18 18 18 16 12 12 14 26 26 17 30 22 24 21 24 28 25 29 28 26 18 23 30 32 41 45 46 49 51 52 53 54 55 56 56 58 60 61 63 63 63 63 63 64 65 65 66 67 67 68 69 69 69 69 70 69 70
30 30 32 32 35 32 28 18 18 18 16 12 12 16 18 32 26 19 30 35 23 23 29 31 36 44 42 42 39 36 41 44 45 47 51 58 52 54 54 55 56 57 58 60 62 63 63 63 64 65 65 65 66 67 67 68 69 69 70 70 70 70 70
22 22 25 28 32 33 29 20 18 17 18 16 11 17 21 33 22 23 29 37 29 27 27 32 35 43 46 44 46 40 42 45 45 46 49 51 51 52 53 54 56 57 58 59 61 62 62 63 63 64 65 66 66 67 67 68 68 69 70 70 70 70 70
23 25 29 34 35 32 28 20 18 18 17 17 15 17 26 27 32 29 28 38 30 29 30 35 34 41 42 46 49 49 44 45 46 44 47 49 50 51 52 53 55 57 58 59 60 61 62 62 63 63 65 66 67 67 67 68 68 69 70 70 71 71 70
23 35 40 38 34 29 28 23 18 17 17 16 16 16 22 37 34 38 38 39 35 34 39 40 41 40 40 40 43 46 46 45 46 44 44 47 49 50 51 53 54 56 57 59 60 61 62 62 62 63 64 66 67 67 67 67 68 69 70 70 71 71 71
24 30 36 34 33 30 30 32 31 28 20 16 15 22 23 32 34 37 33 35 34 35 38 36 36 37 37 39 42 45 47 46 46 45 44 45 49 50 51 52 54 56 57 59 60 61 62 63 63 63 64 65 66 66 67 67 67 69 70 71 71 71 71
23 23 32 30 32 32 31 34 37 41 35 36 44 51 52 51 39 31 33 32 35 37 42 46 49 50 49 49 49 49 50 52 48 45 44 46 49 50 52 53 55 55 56 58 60 61 62 63 63 63 64 65 66 66 67 67 67 68 70 71 71 72 72
21 22 29 31 34 29 31 40 39 45 49 49 49 50 51 52 52 44 36 35 41 39 50 55 57 58 58 58 59 60 61 60 61 62 62 62 62 61 60 58 58 60 62 61 60 61 62 63 63 63 64 64 66 67 67 68 67 68 68 70 71 72 72
22 23 37 37 31 32 43 40 39 41 41 49 50 51 51 52 53 53 50 41 41 50 57 57 57 58 58 59 59 61 63 66 65 65 65 66 66 65 65 65 66 67 67 67 66 65 63 63 64 65 65 65 66 66 67 67 68 68 68 69 70 72 72
28 35 36 30 35 44 38 38 38 41 41 42 48 50 50 51 52 53 52 51 47 52 56 56 57 57 58 59 59 59 60 62 63 62 62 63 63 64 65 65 66 66 66 65 64 64 65 63 64 67 67 67 67 67 67 68 68 68 69 68 69 71 72
28 29 28 33 44 42 37 37 38 39 39 40 43 48 50 50 51 53 53 54 54 50 54 56 57 57 58 58 59 61 61 61 61 62 63 64 65 66 67 68 68 69 71 71 70 71 71 71 71 70 66 64 67 67 67 67 68 69 69 68 68 69 71
32 25 33 34 38 34 36 39 40 41 41 41 42 50 49 51 50 52 53 54 54 55 55 55 55 57 57 57 58 60 62 62 62 62 63 65 66 67 68 69 69 69 69 69 70 70 70 71 72 73 72 72 71 71 68 67 68 68 68 68 69 69 70
21 32 30 29 31 38 38 40 41 42 42 42 43 48 47 50 49 52 53 54 55 55 56 56 57 56 56 56 58 61 62 62 63 63 63 65 65 66 66 67 68 68 69 70 70 71 70 70 70 72 74 74 73 73 74 72 67 67 68 68 68 68 69
26 31 30 32 36 34 41 43 44 43 42 43 45 43 45 50 49 49 50 53 55 56 56 57 57 57 56 57 59 61 62 62 63 63 63 64 65 66 66 67 68 69 69 69 69 69 69 69 70 71 73 74 75 75 74 73 72 67 66 67 69 68 69
26 25 27 38 38 41 42 44 44 43 42 45 41 38 47 53 52 47 48 51 54 56 56 57 56 58 58 59 60 61 61 62 62 63 64 64 65 66 67 67 70 68 68 69 69 69 69 70 70 71 72 73 74 74 74 71 71 72 72 69 68 69 70
24 23 24 29 39 43 42 45 45 43 44 41 41 51 54 55 53 48 46 48 51 54 56 57 58 58 59 60 60 61 61 62 63 63 64 65 65 66 68 70 69 67 68 68 68 69 70 70 71 71 72 72 74 74 72 73 74 76 76 75 71 69 70
32 33 34 33 30 39 44 46 43 44 44 47 53 54 52 54 54 49 46 47 48 51 54 56 57 58 59 59 59 60 61 62 62 63 63 64 65 66 66 66 68 67 68 68 68 69 69 70 70 71 72 72 74 74 72 72 74 75 76 76 73 70 70
33 33 34 34 41 43 48 45 42 46 48 55 56 53 51 54 54 50 48 47 47 47 50 53 55 56 56 57 59 60 61 62 62 63 63 64 65 66 67 67 68 68 67 68 68 69 69 69 69 70 71 72 73 73 71 73 74 75 75 75 73 71 70
37 35 36 39 40 47 49 48 46 50 46 49 53 48 48 51 53 54 51 49 48 47 47 49 52 54 54 55 57 58 59 61 62 62 63 64 64 65 66 67 69 67 67 68 69 68 68 68 69 70 70 71 71 71 71 73 73 74 74 75 74 71 71
37 37 40 37 35 37 49 49 49 49 51 49 52 52 51 50 52 54 52 52 51 48 47 46 49 51 53 53 54 56 57 59 61 63 63 64 64 65 66 67 68 67 67 68 68 68 68 68 69 70 70 70 70 70 72 73 73 73 73 74 75 72 71
30 31 36 38 38 36 38 39 45 44 48 50 49 52 53 53 53 48 53 53 52 51 48 46 47 49 51 51 52 54 56 57 59 61 63 64 64 65 65 66 68 67 66 67 67 68 67 67 68 68 69 69 70 70 71 72 72 73 73 74 75 74 72
31 33 39 40 39 37 41 41 46 45 44 45 45 46 50 52 54 51 50 53 50 53 49 50 48 48 50 51 51 51 54 56 58 60 62 63 64 65 65 66 68 66 65 65 67 66 66 66 67 68 68 68 69 70 72 72 72 73 74 74 74 73 73
34 35 39 38 38 37 38 40 41 41 42 43 46 45 49 45 47 49 49 48 52 52 53 51 48 48 48 50 50 50 52 55 58 60 61 62 63 64 65 66 68 67 65 66 66 65 66 67 67 67 68 68 70 70 71 71 71 72 73 76 75 73 73
33 34 35 37 36 35 37 38 39 41 41 43 42 46 47 49 49 47 46 48 50 48 48 52 51 48 47 47 50 49 51 54 57 60 61 61 61 63 65 66 67 67 67 67 66 66 67 67 67 66 66 67 68 69 70 70 71 71 71 73 72 72 73
33 35 37 39 39 38 38 38 39 41 40 40 43 43 46 47 48 48 44 41 42 44 49 51 49 48 47 46 48 48 51 53 56 60 61 61 61 63 64 65 65 67 67 68 67 67 67 67 66 66 66 67 67 68 69 69 70 71 71 72 71 71 72
37 37 37 38 37 37 37 39 39 39 40 41 41 42 43 48 49 48 48 43 43 45 50 49 50 49 47 47 48 48 51 52 54 60 62 61 62 63 64 64 66 68 68 67 66 66 66 67 66 66 66 66 67 67 68 69 70 71 71 71 71 71 71
36 38 38 38 38 38 39 39 39 40 41 42 41 41 42 46 49 50 49 48 45 48 48 47 46 49 49 48 50 51 51 52 55 62 63 63 62 63 64 64 65 66 66 66 65 65 66 66 66 66 65 66 67 67 67 67 69 70 70 70 70 70 70